GFSWCAN_850_dewp_000.txt.gz
Dewpoint
4 6 5 3 5 4 4 4 4 5 6 6 6 6 6 6 6 6 5 5 6 6 5 5 4 4 4 4 6 4 4 5 4 5 6 6 6 5 6 3 5 6 7 6 6 7 7 -1 -3 3 1 2 1 1
4 5 5 5 4 5 4 4 4 4 4 5 6 6 6 6 6 6 6 6 6 6 6 5 5 4 4 4 4 4 3 3 4 6 5 5 5 4 6 6 2 6 5 6 3 4 -0 -0 0 1 1 2 2 2
1 3 5 5 5 5 3 4 4 3 3 4 4 5 6 6 6 6 6 6 6 6 6 6 5 2 4 3 3 5 4 4 4 3 4 3 5 4 6 5 5 3 2 4 5 2 1 1 2 2 2 2 2 3
-0 0 2 3 5 5 5 6 5 4 3 3 4 5 4 5 6 6 6 6 6 6 5 5 4 4 3 3 3 3 4 5 5 5 5 3 4 4 5 4 4 3 3 4 5 4 2 2 1 1 2 2 2 2
-0 1 0 0 2 3 4 5 6 5 4 4 3 5 5 5 6 6 6 5 5 5 4 4 4 3 3 3 3 4 4 4 6 5 3 4 4 4 4 4 5 4 4 5 5 2 2 3 1 1 1 2 3 3
-1 0 1 2 2 1 2 3 3 5 5 5 5 4 4 4 5 5 4 4 5 4 5 2 4 4 3 3 2 2 4 5 5 5 4 5 5 4 3 5 3 2 1 1 2 1 1 1 1 1 2 3 3 2
-0 0 1 1 2 2 2 4 4 4 5 5 4 5 5 5 4 5 3 3 3 4 3 1 2 3 3 2 4 4 4 4 4 4 4 4 3 4 3 4 1 1 0 -0 1 1 2 1 2 2 2 -1 -2 -1
-1 -0 0 1 0 1 2 2 2 2 2 2 2 2 2 3 3 3 3 2 2 3 2 1 2 1 1 2 2 2 3 3 4 3 3 3 2 3 4 1 -1 -3 -2 -1 -1 0 1 1 1 -4 -5 -5 -5 -3
-1 -1 -1 -1 0 -0 0 1 1 1 1 1 1 0 1 0 0 1 1 1 1 2 0 0 2 3 -0 2 2 2 2 3 3 2 3 2 4 4 -0 -3 -3 -2 -2 -1 0 0 -1 -6 -6 -5 -5 -4 -3 -1
-1 -1 -2 -2 -2 -1 -0 -0 -1 -1 -1 -1 -0 -0 -1 -0 -1 -1 -0 -0 -0 -0 -0 0 1 2 1 1 1 2 1 2 3 2 2 3 2 -1 -2 -2 -2 -1 -0 -0 -3 -5 -6 -5 -5 -4 -2 -1 -1 -1
-0 -0 -0 -1 -2 -1 -1 -1 -1 -1 -1 -2 -2 -2 -2 0 -1 -0 -1 0 -0 1 0 1 1 1 -1 1 2 1 3 2 3 1 3 2 1 -3 -3 -3 -3 -4 -6 -7 -7 -6 -5 -5 -3 -2 -3 -1 -1 -2
-2 -2 -2 -2 -2 -1 -1 -2 -2 -3 -4 -5 -2 -1 -1 -0 -1 -0 0 0 0 0 0 1 0 -0 -0 0 1 1 2 2 3 -2 0 1 -2 -4 -5 -7 -7 -6 -6 -6 -6 -7 -7 -5 -3 -4 -4 -4 -5 -7
-2 -2 -2 -1 -1 -2 -3 -4 -4 -5 -5 -3 -3 -1 -1 -1 -1 -2 -1 1 1 0 -1 -1 0 -0 -0 -0 -1 0 2 2 -1 0 1 -1 -5 -6 -7 -7 -6 -6 -6 -5 -5 -7 -6 -3 -4 -5 -5 -4 -6 -7
-3 -2 -2 -2 -3 -4 -5 -6 -7 -4 -4 -4 -2 -2 -2 -2 -2 -2 -1 -0 -1 -1 -1 -3 -3 -1 -1 -0 0 2 0 -1 1 0 0 -4 -6 -8 -8 -6 -6 -5 -5 -5 -7 -8 -5 -4 -4 -5 -5 -9 -14 -16
-4 -4 -5 -5 -5 -6 -7 -8 -8 -5 -6 -4 -4 -3 -2 -3 -3 -3 -3 -2 -2 -2 -3 -1 -2 -2 -1 -1 -0 -0 0 -0 -1 -1 -1 -5 -7 -7 -7 -7 -5 -4 -4 -4 -8 -7 -6 -5 -6 -9 -15 -15 -15 -14
-4 -4 -6 -7 -8 -9 -10 -9 -5 -5 -6 -4 -5 -4 -4 -3 -3 -4 -4 -3 -5 -3 -3 -3 -4 -4 -3 -1 -1 -1 -1 -4 -3 -1 -4 -6 -6 -6 -6 -6 -6 -4 -3 -4 -6 -7 -5 -5 -9 -15 -13 -14 -14 -12
-4 -4 -5 -6 -7 -6 -8 -7 -5 -6 -4 -5 -5 -5 -4 -4 -4 -3 -6 -5 -5 -3 -3 -3 -3 -4 -5 -2 -2 -3 -3 -2 -5 -5 -5 -6 -6 -6 -6 -6 -6 -3 -3 -3 -4 -5 -3 -5 -13 -14 -11 -13 -12 -10
-5 -5 -6 -6 -6 -5 -5 -6 -7 -6 -5 -6 -5 -5 -5 -4 -4 -4 -8 -8 -6 -4 -6 -6 -6 -3 -3 -5 -6 -4 -7 -7 -6 -6 -6 -6 -6 -6 -5 -4 -3 -3 -3 -3 -3 -3 -4 -6 -14 -10 -12 -12 -10 -9
-6 -6 -7 -7 -6 -4 -6 -6 -6 -6 -7 -6 -5 -5 -5 -5 -7 -9 -8 -8 -7 -5 -5 -3 -4 -5 -5 -7 -5 -5 -5 -6 -5 -5 -5 -5 -6 -5 -4 -4 -4 -3 -3 -3 -4 -4 -5 -10 -9 -11 -12 -10 -9 -7
-5 -5 -6 -6 -6 -5 -6 -5 -6 -5 -7 -7 -6 -5 -5 -5 -7 -9 -9 -8 -5 -4 -5 -4 -6 -7 -7 -8 -10 -10 -9 -8 -6 -5 -5 -6 -5 -4 -3 -3 -3 -3 -4 -4 -4 -5 -5 -7 -10 -11 -10 -8 -6 -6
-4 -5 -5 -5 -5 -5 -5 -5 -5 -6 -6 -6 -5 -5 -6 -5 -6 -5 -5 -5 -4 -5 -6 -8 -8 -8 -10 -9 -9 -8 -7 -7 -6 -5 -5 -5 -5 -4 -4 -3 -4 -4 -4 -4 -5 -6 -7 -9 -11 -12 -9 -7 -6 -6
-4 -5 -5 -5 -5 -5 -6 -5 -5 -5 -5 -5 -5 -5 -6 -6 -6 -6 -6 -5 -6 -7 -7 -7 -8 -8 -8 -8 -8 -8 -8 -7 -6 -5 -5 -5 -4 -4 -4 -4 -4 -4 -4 -5 -8 -7 -8 -10 -12 -10 -8 -7 -8 -8
-4 -5 -4 -5 -5 -5 -5 -5 -5 -6 -5 -6 -5 -6 -6 -6 -6 -9 -7 -8 -9 -10 -10 -10 -10 -9 -8 -8 -8 -8 -8 -7 -6 -6 -5 -4 -4 -4 -4 -4 -5 -5 -6 -6 -8 -9 -10 -10 -9 -8 -7 -8 -8 -10
-5 -5 -5 -5 -5 -5 -6 -5 -5 -5 -5 -6 -6 -6 -8 -7 -8 -7 -7 -9 -10 -10 -10 -9 -9 -8 -8 -7 -7 -6 -6 -5 -5 -4 -4 -4 -4 -4 -4 -5 -6 -8 -7 -9 -11 -11 -9 -8 -8 -7 -7 -8 -9 -10
-5 -5 -5 -5 -4 -5 -6 -7 -6 -6 -5 -7 -6 -7 -7 -7 -6 -8 -8 -10 -10 -9 -9 -10 -7 -6 -5 -5 -4 -4 -5 -4 -4 -5 -5 -4 -4 -4 -5 -7 -7 -10 -11 -11 -10 -9 -8 -7 -8 -11 -11 -10 -9 -8
-5 -5 -5 -6 -6 -6 -7 -6 -6 -6 -7 -7 -7 -8 -7 -7 -7 -7 -10 -11 -11 -12 -11 -8 -7 -6 -5 -5 -4 -4 -4 -5 -4 -4 -4 -4 -4 -4 -5 -9 -10 -9 -9 -9 -9 -10 -9 -10 -12 -12 -11 -11 -10 -10
-5 -6 -5 -6 -7 -7 -7 -8 -8 -7 -7 -6 -7 -7 -6 -5 -6 -8 -11 -14 -13 -12 -10 -8 -7 -6 -5 -5 -4 -4 -4 -4 -4 -4 -6 -8 -7 -5 -6 -6 -7 -7 -9 -9 -10 -10 -11 -12 -12 -11 -10 -9 -8 -9
-6 -6 -6 -7 -6 -7 -7 -7 -7 -7 -8 -8 -7 -6 -5 -6 -7 -10 -12 -12 -12 -11 -9 -8 -7 -6 -6 -5 -5 -5 -4 -4 -4 -6 -7 -6 -6 -6 -6 -6 -6 -6 -7 -7 -8 -8 -9 -9 -8 -9 -9 -8 -8 -8
-6 -6 -6 -6 -6 -6 -6 -7 -7 -9 -10 -9 -7 -6 -7 -9 -11 -11 -11 -11 -11 -9 -7 -7 -6 -7 -8 -7 -5 -5 -4 -4 -5 -7 -7 -6 -6 -6 -6 -6 -6 -5 -6 -6 -6 -7 -8 -9 -8 -8 -8 -8 -9 -11
-6 -7 -6 -6 -6 -6 -7 -7 -7 -8 -9 -9 -9 -7 -7 -8 -9 -11 -11 -10 -9 -7 -7 -6 -7 -7 -7 -6 -5 -5 -5 -5 -5 -6 -6 -5 -5 -5 -5 -5 -5 -6 -6 -6 -6 -6 -7 -7 -8 -8 -8 -11 -12 -12
-6 -6 -6 -6 -6 -6 -7 -7 -8 -8 -8 -8 -6 -6 -7 -8 -9 -9 -8 -7 -7 -7 -7 -7 -7 -6 -6 -6 -6 -6 -6 -6 -6 -6 -6 -6 -5 -5 -6 -6 -7 -7 -7 -8 -8 -8 -9 -9 -9 -9 -11 -12 -12 -12
-7 -6 -6 -6 -6 -7 -7 -7 -7 -7 -6 -7 -6 -6 -7 -6 -5 -7 -7 -7 -7 -8 -8 -8 -7 -7 -7 -7 -7 -7 -7 -7 -7 -7 -6 -7 -7 -7 -7 -8 -9 -9 -9 -10 -10 -10 -10 -11 -11 -12 -12 -12 -12 -12
-6 -6 -6 -6 -6 -6 -7 -7 -6 -6 -7 -6 -6 -7 -7 -6 -6 -8 -9 -9 -9 -9 -8 -7 -7 -7 -7 -7 -7 -7 -8 -8 -8 -8 -8 -7 -7 -8 -8 -9 -9 -9 -10 -10 -10 -10 -11 -11 -12 -12 -12 -12 -13 -13

GFSWCAN_850_dewp_003.txt.gz
Dewpoint
4 4 5 6 5 4 5 6 7 7 6 6 6 6 6 6 6 5 7 5 6 7 6 6 5 5 4 4 6 4 4 5 6 7 6 6 7 4 4 2 4 5 7 7 7 7 8 -2 -1 4 4 2 1 2
3 4 4 3 4 5 5 4 4 4 5 6 7 6 6 6 6 6 6 5 6 6 6 6 6 5 4 4 3 4 4 3 4 6 6 6 6 5 6 6 1 4 3 6 4 4 0 0 1 1 1 1 3 3
2 3 4 4 5 4 4 4 4 4 4 5 5 5 5 6 7 7 6 6 7 7 7 6 6 2 5 5 5 5 5 4 3 3 4 5 5 5 6 5 5 4 2 5 5 2 1 0 1 2 3 3 1 2
-1 0 1 3 4 5 4 3 3 5 4 4 5 5 5 4 5 6 6 6 7 6 5 5 4 3 5 6 6 5 5 5 5 5 6 2 4 4 5 4 4 3 3 4 5 3 2 3 3 1 2 1 1 2
-3 -2 -1 1 1 3 4 4 5 4 4 4 5 4 5 5 5 5 6 6 6 6 4 4 3 3 4 5 5 5 5 5 5 6 4 4 4 4 4 4 5 3 4 5 5 3 4 2 -0 -1 0 2 2 1
-3 -2 -2 -2 -1 1 2 3 4 5 4 4 5 5 5 5 5 5 4 5 6 6 5 3 3 3 3 3 4 5 5 5 5 5 5 4 4 4 4 5 3 2 2 3 4 3 2 0 -1 0 1 1 -3 -5
-2 -3 -1 -0 0 -1 -1 1 2 3 4 5 6 5 5 5 5 5 4 3 3 5 4 3 2 2 3 4 4 4 5 5 5 5 5 4 3 4 3 4 2 0 1 0 1 1 -1 -0 0 0 -3 -5 -5 -5
-2 -1 -0 -0 0 1 1 1 2 4 4 5 5 5 5 5 4 3 3 3 3 4 3 2 2 2 2 3 3 4 4 4 4 4 4 3 2 3 4 1 -1 -3 -3 -4 -5 -3 0 0 -1 -5 -5 -6 -5 -4
-2 -1 -1 0 -1 0 0 1 1 1 2 2 3 3 3 2 2 2 2 2 2 2 0 -0 3 4 1 3 2 2 2 2 3 4 3 1 3 5 1 -3 -3 -4 -4 -1 -0 -1 -3 -4 -5 -6 -6 -6 -3 -2
-2 -1 -1 -1 -1 -1 0 0 0 0 1 1 1 1 0 1 1 1 0 0 0 0 -0 0 1 3 1 2 1 1 1 2 3 2 0 4 2 -2 -2 -3 -4 -2 -1 -3 -4 -4 -5 -5 -5 -6 -5 -3 -1 -2
-1 -1 -2 -2 -2 -2 -2 -1 -1 -1 -1 -1 -2 -1 -0 -1 0 0 -0 -0 -0 0 -0 0 1 2 1 2 2 1 2 3 3 -1 2 3 1 -3 -4 -3 -3 -4 -5 -5 -5 -5 -5 -6 -6 -5 -3 -3 -5 -6
-0 -0 -0 0 -2 -2 -2 -1 -0 -1 -1 -2 -2 -1 -1 -0 -1 0 1 0 1 1 -0 1 0 -0 1 1 2 2 2 2 2 -0 1 2 -3 -4 -5 -5 -6 -6 -6 -6 -5 -5 -5 -6 -5 -2 -4 -9 -5 -5
-1 -1 -1 -2 -2 -2 -1 -1 -2 -3 -6 -4 -5 -1 -0 -1 -0 -2 -1 1 2 1 -0 -0 -0 -1 -1 -0 -0 1 2 3 0 2 1 -1 -3 -6 -8 -8 -8 -8 -6 -6 -6 -5 -5 -6 -5 -2 -4 -5 -4 -6
-3 -2 -2 -1 -1 -1 -2 -3 -4 -6 -2 -6 -2 -2 -1 -1 -3 -3 -2 1 -1 -1 -1 -1 -2 -2 -1 0 0 1 -0 -0 1 -0 -0 -3 -7 -8 -7 -6 -5 -6 -6 -6 -5 -4 -5 -7 -7 -4 -4 -5 -7 -16
-3 -3 -2 -2 -2 -3 -4 -6 -6 -4 -5 -3 -2 -2 -3 -3 -1 -1 -2 -1 -1 -2 -2 -2 -2 -2 -3 -2 -1 -1 -1 -1 -2 -4 -2 -6 -5 -5 -5 -5 -6 -7 -6 -5 -4 -3 -4 -6 -7 -4 -4 -11 -14 -12
-4 -3 -3 -3 -4 -5 -6 -7 -4 -3 -9 -5 -5 -3 -3 -2 -3 -3 -2 -2 -2 -1 -2 -2 -3 -3 -4 -2 -2 -2 -4 -7 -3 -1 -6 -7 -8 -7 -6 -6 -6 -8 -7 -4 -4 -3 -3 -4 -5 -4 -5 -13 -10 -13
-4 -4 -6 -6 -7 -8 -6 -4 -5 -10 -6 -4 -4 -4 -2 -3 -2 -2 -3 -2 -3 -2 -4 -4 -4 -5 -10 -5 -5 -7 -5 -2 -7 -7 -6 -8 -8 -7 -5 -5 -6 -6 -4 -3 -3 -2 -3 -3 -4 -4 -10 -11 -10 -12
-4 -5 -5 -7 -7 -5 -4 -4 -7 -5 -5 -5 -6 -5 -4 -3 -3 -3 -5 -3 -3 -5 -7 -6 -10 -8 -6 -9 -6 -5 -9 -9 -7 -7 -8 -10 -9 -7 -6 -5 -5 -4 -3 -3 -3 -3 -3 -4 -4 -7 -11 -9 -11 -11
-4 -6 -6 -5 -5 -5 -5 -6 -4 -5 -6 -6 -5 -5 -5 -4 -4 -4 -5 -4 -4 -5 -6 -5 -5 -6 -5 -8 -6 -7 -6 -6 -6 -8 -8 -8 -8 -6 -6 -5 -5 -3 -3 -4 -3 -4 -4 -4 -5 -8 -7 -9 -10 -7
-6 -7 -7 -6 -5 -5 -5 -5 -5 -5 -6 -7 -6 -6 -6 -5 -5 -4 -6 -7 -4 -4 -5 -5 -7 -8 -8 -9 -10 -10 -9 -8 -8 -7 -7 -8 -8 -8 -6 -6 -5 -4 -4 -4 -4 -4 -5 -5 -6 -7 -8 -10 -10 -7
-5 -6 -6 -6 -5 -4 -4 -5 -5 -5 -7 -7 -7 -6 -6 -5 -4 -4 -4 -4 -4 -5 -7 -8 -8 -8 -8 -8 -8 -8 -8 -8 -7 -7 -6 -6 -6 -6 -5 -5 -4 -4 -4 -4 -5 -5 -5 -5 -6 -7 -10 -10 -9 -7
-5 -5 -5 -5 -5 -6 -6 -5 -7 -5 -6 -6 -5 -6 -7 -6 -5 -5 -5 -5 -6 -7 -8 -8 -8 -8 -8 -8 -8 -8 -8 -8 -7 -7 -7 -7 -5 -5 -4 -4 -4 -4 -4 -4 -4 -4 -5 -6 -7 -9 -11 -10 -8 -8
-5 -5 -5 -6 -6 -5 -4 -5 -5 -6 -5 -6 -6 -6 -7 -7 -7 -6 -7 -8 -8 -9 -10 -10 -9 -9 -9 -9 -9 -8 -9 -7 -6 -6 -5 -5 -4 -4 -4 -4 -4 -4 -4 -4 -5 -6 -7 -7 -8 -11 -11 -9 -8 -8
-5 -5 -4 -5 -5 -4 -5 -4 -5 -6 -6 -5 -7 -7 -9 -9 -7 -6 -7 -8 -9 -9 -9 -9 -9 -9 -9 -8 -7 -7 -6 -5 -5 -4 -4 -4 -4 -4 -4 -4 -4 -4 -5 -5 -7 -7 -8 -10 -11 -10 -8 -8 -7 -7
-5 -5 -5 -4 -4 -5 -6 -6 -6 -6 -6 -7 -7 -8 -8 -6 -7 -8 -7 -9 -9 -9 -9 -9 -8 -8 -7 -7 -6 -5 -4 -4 -4 -4 -5 -5 -4 -4 -4 -4 -5 -5 -7 -7 -7 -9 -11 -11 -10 -9 -7 -8 -7 -7
-4 -5 -5 -7 -6 -6 -7 -7 -8 -8 -8 -8 -8 -9 -5 -7 -7 -7 -11 -11 -10 -9 -9 -11 -12 -10 -7 -6 -6 -5 -4 -4 -4 -5 -5 -4 -4 -4 -4 -4 -6 -8 -10 -10 -11 -11 -10 -9 -8 -7 -10 -11 -9 -8
-5 -6 -6 -7 -8 -7 -7 -6 -7 -8 -8 -9 -9 -8 -6 -6 -8 -11 -12 -11 -8 -10 -13 -13 -11 -8 -5 -5 -4 -5 -5 -6 -5 -4 -4 -4 -6 -7 -5 -5 -6 -7 -8 -7 -8 -9 -10 -10 -10 -11 -11 -8 -8 -8
-7 -9 -6 -6 -6 -7 -6 -7 -8 -8 -9 -11 -10 -8 -5 -7 -10 -12 -9 -7 -10 -11 -11 -11 -11 -10 -8 -7 -7 -7 -7 -6 -5 -4 -4 -5 -7 -7 -6 -5 -6 -6 -7 -7 -8 -9 -9 -10 -11 -12 -10 -8 -8 -8
-7 -9 -8 -7 -6 -6 -7 -7 -7 -10 -11 -10 -6 -6 -7 -9 -9 -8 -8 -7 -9 -9 -9 -10 -10 -8 -7 -7 -7 -7 -6 -5 -5 -5 -6 -5 -5 -6 -5 -6 -6 -6 -6 -6 -6 -7 -7 -9 -9 -8 -9 -9 -9 -9
-7 -7 -7 -7 -6 -6 -7 -8 -8 -8 -7 -7 -7 -6 -6 -7 -7 -6 -7 -7 -7 -8 -9 -9 -8 -7 -7 -7 -6 -6 -6 -6 -6 -6 -6 -5 -5 -5 -5 -5 -5 -5 -5 -5 -5 -6 -6 -7 -7 -8 -8 -8 -8 -9
-7 -5 -6 -6 -5 -6 -7 -7 -7 -7 -6 -6 -6 -5 -5 -5 -5 -5 -6 -6 -8 -9 -8 -7 -6 -6 -7 -7 -6 -6 -6 -6 -7 -7 -6 -6 -6 -6 -6 -6 -6 -6 -7 -6 -6 -6 -7 -7 -8 -8 -8 -9 -10 -11
-5 -5 -6 -5 -5 -6 -6 -6 -5 -5 -4 -4 -5 -5 -5 -6 -6 -6 -7 -8 -8 -7 -7 -7 -8 -8 -8 -7 -7 -7 -7 -7 -7 -7 -7 -7 -6 -7 -7 -7 -7 -8 -8 -8 -9 -10 -10 -10 -10 -11 -11 -12 -12 -12
-6 -6 -5 -5 -5 -5 -5 -5 -5 -6 -5 -6 -6 -6 -5 -6 -5 -8 -8 -9 -9 -9 -9 -8 -8 -8 -8 -8 -8 -8 -8 -8 -8 -8 -8 -7 -7 -7 -8 -8 -8 -9 -9 -10 -10 -10 -10 -10 -11 -11 -12 -12 -12 -12

GFSWCAN_850_dewp_006.txt.gz
Dewpoint
3 6 5 6 5 5 6 6 6 6 6 6 6 6 6 6 6 6 6 6 6 7 6 6 6 5 4 4 7 4 5 6 6 6 6 6 6 5 4 2 4 4 6 6 5 7 7 -0 1 5 3 3 3 4
2 3 5 6 6 5 5 5 6 6 6 6 6 6 6 6 6 6 6 7 6 7 7 7 6 5 5 5 5 4 5 4 5 6 5 6 5 6 4 5 0 4 3 4 3 4 0 0 1 2 2 3 3 3
2 3 3 4 4 6 5 5 5 4 5 5 6 6 6 6 6 7 7 6 7 7 6 6 5 3 5 5 5 6 6 5 4 4 5 4 5 5 6 6 5 3 1 4 4 1 1 1 2 2 3 3 3 3
1 2 3 4 4 4 4 3 4 4 4 4 4 4 5 5 5 6 6 7 7 6 5 6 5 4 2 4 6 6 6 6 6 5 6 3 4 4 5 4 4 3 2 3 3 2 2 2 2 2 3 2 3 2
-2 -1 -0 1 2 3 3 3 4 4 4 4 4 4 4 4 5 5 5 5 6 6 5 5 4 3 3 4 5 5 5 5 6 6 4 4 4 4 4 4 4 2 3 4 4 2 3 3 2 2 2 3 2 -3
-4 -3 -3 -1 0 1 1 3 4 4 4 4 4 4 4 5 5 5 5 4 6 6 5 2 4 4 4 3 4 4 5 6 6 6 5 5 4 3 4 4 1 1 1 1 2 1 1 1 1 1 2 -1 -4 -6
-4 -3 -2 -2 -2 -1 0 1 1 2 4 5 5 5 4 5 6 5 5 4 3 4 5 4 3 3 3 3 4 4 4 5 6 6 5 5 4 4 2 5 2 2 1 0 -0 0 1 1 1 -0 -4 -4 -5 -4
-4 -2 -1 -0 1 0 -1 -1 1 1 2 3 5 5 6 5 5 4 4 4 4 4 4 3 2 2 2 3 4 4 4 4 5 5 4 4 3 4 4 2 1 -0 -2 -3 -1 -1 -1 -3 -4 -5 -5 -6 -5 -2
-3 -2 -1 0 -1 -1 -0 1 1 2 3 4 4 5 5 3 3 3 3 3 3 3 2 -0 2 3 2 3 3 2 2 2 3 3 3 3 3 4 2 0 -1 -2 -2 -1 -1 -3 -4 -4 -5 -6 -6 -5 -3 -1
-3 -2 -1 -1 -1 -1 -0 -0 0 1 1 2 3 2 2 1 1 1 1 1 1 1 0 -0 1 3 2 2 1 1 1 1 3 2 2 4 3 1 -0 -1 -3 -2 -4 -5 -5 -5 -6 -6 -6 -6 -5 -4 -2 -4
-4 -2 -1 -1 -2 -2 -1 -0 0 1 1 1 -1 -0 0 1 1 1 -0 -0 -0 0 -1 0 1 2 2 2 2 1 1 1 3 1 3 3 2 -2 -3 -3 -4 -5 -6 -6 -6 -6 -6 -6 -6 -6 -5 -3 -3 -8
-3 -1 -1 -1 -2 -1 -2 -1 -1 -0 0 0 -1 -1 -0 -0 0 1 1 0 1 1 1 1 1 1 1 1 1 1 1 2 1 -0 1 1 -2 -5 -4 -5 -6 -7 -8 -7 -6 -7 -9 -8 -7 -5 -6 -4 -2 -4
-2 -1 -1 -2 -0 -2 -2 -1 -1 -2 -2 -1 -4 -1 -1 -1 0 -0 0 2 2 1 0 0 0 0 -0 -1 0 -0 1 -0 0 2 0 -1 -4 -4 -6 -8 -7 -7 -7 -7 -10 -9 -7 -6 -6 -5 -5 -7 -2 -4
-1 -0 -0 -0 -1 -2 -1 -1 -2 -3 -1 -7 -2 -1 -1 -1 -2 -2 -1 0 -1 -1 -0 -0 -1 -0 -1 -1 -1 -0 -1 1 1 0 -1 -1 -5 -6 -5 -5 -5 -5 -6 -7 -7 -7 -7 -5 -4 -3 -4 -6 -4 -4
-2 -2 -2 -1 -1 -1 -1 -2 -4 -2 -7 -4 -3 -2 -1 -3 -0 -1 -1 -1 -1 -3 -1 -1 -1 -2 -2 -1 -2 -1 -1 -1 -2 -2 -1 -5 -5 -6 -6 -6 -6 -6 -6 -5 -6 -6 -5 -5 -4 -3 -3 -3 -3 -5
-3 -2 -2 -2 -1 -2 -3 -5 -3 -3 -10 -5 -3 -2 -2 -2 -1 -3 -2 -1 -1 -1 -2 -3 -3 -4 -4 -3 -3 -3 -3 -5 -4 0 -5 -6 -6 -6 -7 -9 -7 -5 -5 -5 -6 -4 -3 -3 -2 -2 -3 -3 -4 -7
-3 -3 -3 -2 -2 -3 -4 -3 -4 -8 -9 -5 -3 -4 -2 -3 -2 -4 -3 -2 -2 -2 -3 -4 -4 -4 -7 -4 -5 -6 -4 -2 -6 -6 -7 -7 -7 -7 -7 -8 -8 -7 -6 -5 -5 -4 -4 -4 -4 -4 -3 -4 -6 -7
-3 -3 -3 -3 -4 -4 -4 -4 -6 -4 -4 -4 -5 -5 -4 -3 -3 -3 -3 -3 -2 -4 -7 -6 -9 -6 -6 -7 -6 -5 -7 -7 -7 -7 -7 -8 -9 -9 -8 -7 -8 -9 -5 -5 -5 -3 -3 -4 -4 -4 -5 -5 -6 -8
-4 -4 -5 -6 -5 -4 -5 -5 -3 -4 -5 -5 -6 -5 -4 -3 -3 -4 -3 -3 -4 -4 -5 -5 -5 -5 -5 -8 -7 -7 -7 -6 -6 -7 -7 -7 -8 -8 -8 -8 -8 -7 -6 -6 -4 -4 -4 -4 -4 -5 -5 -6 -7 -7
-4 -5 -6 -4 -4 -4 -5 -4 -4 -4 -5 -5 -5 -5 -5 -5 -5 -4 -4 -4 -4 -4 -5 -5 -6 -7 -7 -8 -8 -8 -8 -8 -7 -6 -7 -7 -7 -7 -7 -6 -6 -6 -6 -5 -4 -4 -3 -4 -5 -5 -6 -5 -7 -6
-6 -6 -5 -4 -4 -4 -4 -5 -6 -6 -6 -8 -7 -7 -6 -5 -5 -4 -3 -4 -4 -6 -7 -8 -8 -8 -8 -8 -8 -7 -7 -7 -6 -6 -6 -6 -7 -6 -6 -6 -6 -5 -4 -4 -4 -4 -4 -5 -5 -5 -6 -6 -8 -8
-4 -6 -5 -5 -5 -6 -5 -5 -6 -5 -6 -7 -7 -6 -6 -5 -4 -4 -5 -4 -5 -6 -6 -7 -7 -7 -7 -7 -7 -7 -7 -7 -8 -8 -7 -6 -5 -5 -5 -4 -4 -4 -4 -4 -4 -4 -4 -5 -5 -5 -6 -8 -10 -9
-5 -5 -6 -5 -5 -5 -6 -5 -5 -6 -6 -6 -6 -7 -6 -6 -7 -7 -7 -7 -7 -7 -7 -7 -8 -8 -8 -8 -8 -9 -9 -9 -7 -6 -5 -4 -4 -4 -4 -4 -4 -4 -4 -5 -4 -4 -4 -5 -6 -6 -7 -9 -10 -8
-5 -5 -5 -5 -5 -6 -5 -5 -5 -6 -6 -7 -7 -7 -8 -8 -8 -7 -6 -7 -8 -8 -8 -8 -8 -8 -8 -8 -8 -8 -8 -7 -6 -5 -4 -4 -4 -4 -4 -5 -4 -4 -4 -4 -4 -4 -5 -7 -7 -7 -9 -10 -8 -6
-5 -5 -4 -5 -4 -5 -5 -5 -6 -7 -6 -7 -6 -7 -8 -8 -7 -7 -7 -9 -9 -9 -8 -8 -8 -8 -7 -7 -7 -7 -7 -6 -4 -4 -6 -5 -5 -5 -5 -4 -4 -4 -4 -4 -4 -6 -6 -7 -9 -10 -10 -7 -6 -6
-4 -5 -5 -7 -6 -6 -7 -8 -7 -6 -6 -6 -7 -9 -9 -7 -7 -6 -10 -11 -10 -10 -9 -9 -10 -11 -10 -9 -8 -7 -7 -6 -6 -6 -8 -5 -5 -5 -5 -4 -5 -4 -5 -6 -7 -7 -9 -10 -10 -9 -7 -6 -7 -7
-4 -5 -5 -6 -7 -7 -7 -7 -7 -6 -7 -7 -8 -6 -8 -5 -7 -11 -13 -12 -10 -9 -8 -9 -8 -9 -8 -8 -9 -8 -8 -8 -6 -7 -8 -6 -5 -4 -5 -5 -5 -5 -5 -8 -9 -8 -6 -7 -8 -7 -6 -7 -8 -8
-6 -7 -5 -6 -7 -7 -5 -6 -7 -7 -8 -10 -9 -7 -7 -7 -9 -12 -11 -8 -8 -9 -9 -9 -9 -9 -8 -8 -9 -10 -9 -7 -6 -7 -7 -7 -6 -5 -5 -6 -6 -5 -5 -6 -6 -6 -7 -8 -8 -6 -7 -7 -8 -8
-6 -8 -8 -7 -6 -6 -7 -6 -6 -9 -10 -10 -7 -7 -8 -10 -10 -9 -9 -8 -7 -7 -7 -7 -7 -7 -7 -8 -9 -8 -6 -6 -6 -6 -6 -6 -6 -5 -5 -5 -5 -5 -6 -6 -6 -5 -5 -7 -8 -9 -9 -8 -7 -8
-7 -7 -7 -8 -6 -6 -8 -9 -9 -9 -8 -7 -5 -5 -5 -6 -8 -8 -6 -5 -5 -6 -6 -6 -6 -6 -8 -8 -7 -6 -6 -6 -6 -6 -7 -7 -7 -6 -6 -6 -6 -5 -5 -5 -5 -5 -6 -6 -7 -7 -8 -8 -8 -8
-9 -8 -7 -6 -6 -7 -7 -7 -7 -7 -6 -5 -5 -5 -5 -5 -5 -5 -5 -5 -5 -5 -5 -5 -6 -7 -7 -7 -7 -7 -7 -7 -7 -7 -7 -7 -7 -7 -7 -7 -7 -7 -7 -7 -7 -8 -8 -8 -8 -8 -8 -9 -9 -9
-5 -6 -6 -5 -6 -7 -6 -5 -5 -5 -5 -4 -4 -4 -4 -4 -4 -5 -6 -6 -6 -7 -7 -8 -8 -8 -8 -8 -8 -8 -8 -8 -8 -8 -7 -7 -7 -8 -8 -8 -8 -8 -8 -8 -8 -9 -9 -9 -9 -9 -10 -10 -11 -11
-6 -6 -7 -7 -7 -7 -7 -5 -4 -6 -6 -5 -5 -6 -5 -4 -5 -7 -8 -8 -8 -8 -9 -8 -8 -9 -9 -8 -8 -8 -8 -8 -8 -8 -8 -8 -8 -8 -8 -9 -9 -9 -9 -9 -9 -10 -10 -10 -10 -10 -11 -11 -12 -12

GFSWCAN_850_dewp_009.txt.gz
Dewpoint
5 6 6 4 5 5 5 6 6 6 6 6 5 5 5 6 5 5 5 6 6 7 6 5 5 5 5 5 3 5 4 4 4 4 4 4 4 3 3 1 1 2 2 4 2 6 4 1 -0 2 1 2 1 3
3 5 5 5 5 5 5 5 6 5 6 6 6 6 6 6 6 6 5 5 6 7 6 6 5 5 5 5 6 5 4 5 4 2 2 3 4 4 4 5 0 3 2 2 3 2 0 -0 -0 0 1 2 3 3
3 3 5 5 5 6 5 4 5 6 6 6 6 6 6 6 6 6 6 6 6 6 6 5 3 2 4 5 5 5 5 4 4 3 4 3 5 3 5 5 3 3 1 3 2 1 0 1 1 1 1 2 4 3
2 3 3 3 4 5 5 6 5 5 5 5 6 6 6 6 6 6 6 6 6 6 6 4 4 2 2 3 3 5 5 5 5 5 6 2 3 4 4 3 4 3 3 3 3 1 1 1 1 2 3 3 2 -0
-0 1 2 2 3 4 4 5 5 5 4 5 4 4 4 5 5 5 5 5 5 6 5 4 4 3 3 3 3 3 4 5 5 5 5 3 4 4 4 3 3 3 3 3 4 1 2 2 2 2 2 0 -2 -4
-3 -2 -1 0 0 1 2 3 3 3 4 3 4 5 5 5 5 5 5 5 4 5 6 3 4 4 4 3 3 3 4 5 5 5 5 5 4 3 3 4 2 1 1 2 2 2 1 2 2 2 -1 -3 -3 -3
-4 -5 -5 -3 -2 -2 -1 -1 1 3 4 4 4 5 5 5 5 5 5 4 4 4 5 4 3 3 3 3 3 3 4 5 5 5 6 5 5 5 2 5 2 2 2 1 1 1 2 1 -2 -4 -3 -4 -5 -4
-4 -4 -3 -2 -0 0 -1 -1 -1 -1 1 3 4 4 5 5 5 4 5 5 4 5 4 3 2 2 2 3 3 4 4 4 5 5 4 4 4 4 3 3 2 1 0 0 -0 -1 -3 -3 -4 -5 -5 -5 -5 -4
-4 -3 -2 -1 -0 -0 -0 0 -0 0 1 1 3 4 5 4 3 3 3 4 4 4 3 1 2 3 2 3 3 3 3 2 3 2 3 3 2 3 3 2 1 -0 -0 -2 -3 -4 -4 -4 -4 -5 -6 -6 -5 -4
-4 -3 -2 0 -1 -2 -1 1 0 1 3 3 3 4 2 2 2 2 2 2 2 2 1 -0 1 2 2 2 2 1 2 1 2 1 2 2 2 1 -0 -1 -0 -4 -5 -4 -3 -5 -6 -7 -8 -9 -7 -6 -6 -5
-5 -3 -2 -2 -2 -2 -0 0 0 1 2 2 1 1 1 1 1 1 0 -0 -0 -1 -1 -0 1 2 2 1 1 1 1 0 2 -1 -1 -1 0 -1 -3 -2 -2 -4 -3 -4 -6 -7 -11 -12 -11 -11 -9 -7 -5 -5
-5 -3 -1 -1 -2 -2 -1 -0 0 1 1 -0 -0 0 0 0 0 0 -0 -1 -0 -0 0 0 0 1 1 1 1 0 1 0 -0 -1 0 -1 -1 -5 -4 -5 -6 -6 -8 -8 -7 -8 -13 -10 -11 -8 -6 -5 -4 -4
-5 -3 -2 -1 -1 -2 -1 -1 -0 -1 -0 -0 -3 -1 -1 -1 -0 -1 -1 1 -1 0 0 0 0 -0 -0 -1 0 -1 0 0 -1 0 -1 -2 -3 -5 -6 -6 -6 -5 -6 -6 -7 -9 -7 -8 -12 -9 -6 -5 -3 -3
-1 -2 -1 -1 -1 -2 -2 -1 -1 -1 -1 -6 -3 -4 -3 -2 -3 -2 -1 -0 -1 -0 0 -0 -0 -0 -2 -2 -2 -2 -3 -1 0 -1 -3 -3 -4 -4 -4 -5 -6 -8 -9 -8 -6 -5 -7 -11 -10 -6 -4 -3 -3 -3
-2 -2 -1 -1 -0 -2 -2 -1 -1 -2 -5 -8 -4 -4 -3 -1 -1 -1 -1 -1 -1 -1 -2 -3 -3 -3 -2 -4 -2 -4 -4 -2 -3 -4 -4 -5 -5 -6 -6 -7 -7 -8 -8 -7 -7 -8 -11 -8 -7 -4 -5 -5 -4 -3
-1 -1 -1 -1 -1 -1 -1 -2 -2 -3 -9 -7 -3 -3 -3 -2 -2 -2 -2 -2 -1 -4 -4 -3 -3 -6 -6 -5 -4 -4 -4 -4 -5 -4 -5 -7 -7 -7 -8 -8 -8 -9 -9 -8 -10 -11 -8 -6 -5 -4 -3 -4 -3 -4
-3 -3 -3 -2 -2 -2 -3 -2 -3 -5 -9 -7 -3 -4 -3 -3 -2 -2 -3 -2 -1 -7 -5 -3 -7 -6 -5 -6 -5 -4 -5 -6 -5 -7 -8 -9 -9 -9 -8 -8 -9 -9 -9 -9 -10 -9 -6 -5 -4 -3 -3 -4 -4 -5
-3 -3 -3 -2 -2 -3 -3 -4 -5 -9 -5 -4 -4 -5 -5 -4 -4 -4 -3 -2 -2 -4 -5 -6 -7 -7 -8 -8 -8 -8 -9 -10 -10 -10 -11 -11 -8 -8 -8 -8 -8 -8 -7 -7 -7 -7 -7 -5 -4 -4 -4 -4 -5 -5
-4 -4 -3 -3 -4 -4 -5 -5 -5 -5 -5 -5 -5 -4 -5 -4 -5 -5 -4 -4 -3 -3 -5 -6 -8 -7 -7 -9 -10 -11 -10 -9 -7 -7 -8 -9 -7 -7 -6 -6 -7 -7 -6 -6 -6 -6 -6 -4 -4 -4 -4 -5 -5 -6
-4 -4 -3 -4 -4 -5 -5 -5 -4 -4 -4 -4 -6 -6 -6 -6 -6 -5 -4 -3 -3 -3 -4 -5 -6 -8 -8 -9 -9 -8 -8 -8 -8 -7 -6 -6 -6 -6 -7 -7 -6 -6 -5 -5 -5 -5 -4 -4 -5 -5 -5 -5 -5 -5
-4 -4 -4 -4 -4 -5 -4 -6 -6 -6 -7 -6 -6 -6 -6 -6 -4 -4 -4 -4 -4 -5 -5 -7 -9 -10 -10 -10 -10 -9 -9 -8 -7 -6 -6 -6 -8 -9 -7 -5 -5 -4 -4 -4 -4 -5 -4 -4 -4 -4 -5 -5 -5 -6
-5 -5 -4 -4 -5 -6 -6 -6 -6 -6 -6 -7 -7 -7 -6 -5 -5 -4 -4 -3 -4 -6 -7 -9 -9 -9 -8 -7 -7 -6 -6 -6 -7 -8 -9 -9 -7 -6 -5 -5 -4 -4 -5 -5 -5 -5 -4 -5 -4 -4 -5 -6 -6 -6
-6 -5 -6 -6 -6 -5 -7 -6 -5 -6 -5 -6 -6 -6 -6 -6 -7 -7 -5 -5 -6 -10 -9 -8 -8 -8 -7 -7 -7 -7 -8 -8 -8 -8 -8 -7 -7 -6 -5 -5 -4 -4 -5 -5 -4 -5 -5 -4 -4 -5 -5 -5 -6 -9
-6 -6 -7 -7 -7 -6 -6 -5 -6 -5 -7 -6 -8 -9 -8 -7 -7 -6 -8 -8 -9 -9 -8 -8 -8 -8 -8 -7 -7 -7 -7 -7 -7 -7 -8 -8 -6 -7 -8 -5 -5 -4 -5 -5 -4 -5 -5 -4 -5 -6 -6 -6 -8 -8
-5 -5 -4 -5 -5 -6 -5 -7 -6 -6 -9 -9 -9 -10 -8 -9 -9 -9 -10 -10 -10 -10 -10 -9 -9 -8 -7 -8 -10 -11 -10 -9 -7 -7 -8 -6 -6 -8 -8 -5 -5 -5 -5 -5 -4 -5 -5 -6 -6 -6 -9 -9 -8 -7
-4 -5 -5 -6 -5 -6 -7 -10 -9 -9 -10 -10 -9 -9 -9 -8 -9 -9 -7 -12 -12 -12 -11 -10 -9 -8 -8 -10 -9 -8 -8 -7 -7 -6 -6 -7 -5 -5 -6 -6 -5 -5 -5 -4 -5 -6 -6 -6 -7 -8 -7 -8 -7 -7
-4 -5 -5 -7 -6 -6 -6 -8 -9 -8 -10 -9 -10 -8 -8 -6 -9 -9 -13 -13 -12 -9 -9 -9 -9 -8 -8 -8 -7 -8 -7 -6 -6 -7 -7 -6 -6 -6 -6 -6 -6 -6 -6 -5 -5 -7 -8 -7 -6 -6 -6 -7 -7 -7
-6 -6 -6 -5 -6 -7 -7 -7 -9 -9 -9 -9 -9 -9 -9 -10 -9 -12 -12 -10 -9 -9 -9 -8 -7 -7 -7 -7 -7 -6 -6 -7 -6 -6 -6 -7 -6 -6 -6 -5 -5 -5 -5 -6 -5 -6 -6 -6 -6 -6 -6 -7 -7 -8
-5 -7 -7 -6 -6 -7 -7 -7 -7 -8 -9 -10 -8 -9 -9 -10 -10 -10 -10 -9 -9 -8 -8 -8 -8 -6 -5 -5 -5 -6 -6 -6 -6 -6 -7 -7 -7 -8 -7 -7 -7 -6 -6 -6 -6 -6 -6 -5 -5 -6 -6 -6 -7 -8
-6 -7 -6 -7 -9 -9 -8 -9 -10 -10 -10 -9 -9 -8 -7 -7 -9 -9 -8 -7 -6 -5 -5 -4 -4 -5 -5 -5 -6 -7 -7 -7 -7 -6 -6 -7 -8 -7 -7 -7 -7 -7 -7 -7 -7 -7 -7 -6 -7 -7 -7 -7 -8 -8
-10 -9 -7 -7 -8 -8 -9 -9 -9 -8 -8 -7 -7 -5 -5 -6 -7 -5 -5 -5 -5 -5 -4 -5 -6 -6 -7 -7 -7 -7 -8 -7 -7 -7 -8 -7 -8 -8 -8 -8 -8 -8 -8 -8 -8 -8 -8 -8 -8 -8 -8 -9 -9 -9
-7 -7 -7 -7 -7 -8 -8 -8 -8 -7 -6 -6 -5 -5 -4 -4 -5 -5 -5 -5 -5 -6 -6 -7 -8 -8 -8 -8 -8 -8 -9 -8 -8 -8 -8 -8 -8 -8 -8 -8 -9 -9 -9 -9 -9 -9 -9 -9 -9 -9 -10 -10 -11 -11
-7 -7 -7 -6 -5 -6 -8 -8 -7 -7 -7 -6 -6 -5 -5 -5 -5 -7 -8 -8 -8 -8 -8 -8 -9 -9 -10 -10 -10 -10 -9 -9 -9 -9 -9 -9 -9 -9 -9 -9 -9 -9 -9 -9 -10 -10 -10 -10 -10 -11 -11 -11 -11 -12

GFSWCAN_850_dewp_012.txt.gz
Dewpoint
5 6 5 6 6 5 5 6 5 5 5 5 6 5 5 5 4 4 5 5 5 5 5 6 5 5 5 5 2 4 4 4 3 4 3 2 4 2 3 1 1 1 2 4 2 4 4 0 0 2 0 1 1 2
3 5 6 5 5 5 5 5 5 6 5 5 6 6 6 6 6 5 5 5 5 6 6 5 5 4 5 6 5 5 4 3 4 2 2 1 3 3 2 4 1 3 1 1 1 1 -1 -0 -0 0 1 1 2 4
3 3 5 5 5 5 5 5 5 5 6 5 6 6 6 6 6 6 6 5 5 6 5 5 3 2 4 5 6 6 5 5 5 3 3 2 4 2 5 4 4 2 1 2 2 0 0 0 1 1 1 3 3 2
2 3 4 5 6 5 5 5 5 5 5 5 5 6 6 6 6 6 6 6 6 6 6 4 3 3 1 3 3 4 5 5 5 5 5 2 3 4 4 4 4 3 4 3 3 2 2 1 1 2 3 3 0 -1
1 3 3 4 5 5 5 5 5 4 4 5 6 6 6 6 6 6 6 6 6 6 4 4 4 3 2 2 2 3 4 4 4 5 5 3 4 3 3 2 3 3 3 4 4 1 2 2 2 3 2 0 -0 -0
-1 -0 2 3 2 3 4 5 5 6 5 5 5 5 5 5 5 5 5 5 4 5 6 3 4 4 4 4 3 3 2 4 5 5 5 5 4 3 3 4 1 1 2 2 3 3 3 2 1 1 1 -0 -3 -5
-3 -3 -2 -1 0 1 2 2 4 5 5 5 5 4 5 6 5 5 5 4 3 5 5 5 3 3 3 4 3 3 3 3 4 5 6 5 5 5 2 5 2 2 2 2 2 2 2 2 -1 -1 -1 -3 -5 -6
-2 -2 -2 -3 -4 -3 -2 -1 -0 1 2 3 4 5 5 5 5 5 5 5 4 5 5 3 2 2 2 3 3 4 4 4 5 5 4 4 4 4 4 2 2 2 2 1 1 0 -1 -2 -2 -4 -5 -8 -7 -6
-2 -2 -2 -2 -1 -1 -1 -1 -2 -1 -0 2 4 4 4 4 4 4 4 4 4 5 3 2 2 3 2 3 3 3 3 2 3 2 3 3 1 4 3 2 2 1 1 -1 -3 -3 -3 -6 -12 -14 -14 -14 -7 -6
-2 -1 -1 -1 -2 -2 -1 -0 0 1 2 3 4 4 3 3 3 3 2 3 3 2 2 0 1 2 2 3 2 2 1 1 2 1 2 2 2 1 0 0 1 -2 -3 -3 -3 -2 -3 -10 -12 -16 -14 -12 -10 -8
-3 -2 -0 -1 -2 -1 -1 -0 1 2 2 2 2 1 1 1 2 2 1 1 0 -0 -0 -0 1 1 2 1 1 1 1 0 1 -2 1 -0 0 -1 -2 -3 -3 -3 -3 -3 -3 -5 -9 -11 -11 -13 -14 -13 -8 -7
-4 -2 -1 -2 -2 -2 -1 0 1 1 1 0 0 0 1 1 0 0 -0 -1 -1 -1 -0 -1 -0 1 1 1 1 -0 0 -0 -0 -2 -1 -1 -3 -4 -5 -4 -4 -4 -5 -6 -6 -6 -7 -9 -8 -12 -8 -6 -5 -6
-5 -3 -1 -2 -2 -2 -0 0 -0 -0 -0 0 -1 -0 -1 -1 -2 -3 -0 -0 -1 -1 0 1 0 0 0 -0 -0 -3 -2 -3 -2 -0 -2 -3 -3 -4 -4 -5 -6 -7 -8 -9 -11 -9 -8 -7 -9 -10 -7 -7 -5 -5
-6 -5 -2 -1 -2 -2 -0 -1 -2 -1 -2 -7 -5 -3 -4 -3 -3 -3 -2 -1 -1 -0 0 0 -0 -1 -2 -3 -2 -2 -4 -2 -1 -0 -3 -4 -5 -6 -7 -9 -12 -10 -9 -10 -12 -9 -8 -10 -11 -14 -10 -7 -4 -4
-2 -1 -1 -1 -2 -2 -1 -1 -2 -2 -4 -10 -7 -4 -3 -2 -1 -1 -2 -1 -1 -1 -2 -3 -3 -3 -3 -5 -3 -4 -5 -2 -2 -5 -5 -5 -7 -9 -10 -10 -9 -9 -11 -9 -9 -9 -9 -9 -10 -9 -8 -5 -4 -3
-2 -1 -2 -1 -1 -2 -1 -1 -2 -2 -5 -10 -5 -4 -2 -2 -2 -2 -2 -2 -1 -3 -3 -4 -5 -7 -7 -7 -6 -5 -5 -5 -6 -6 -6 -7 -8 -8 -7 -7 -8 -11 -11 -9 -9 -9 -8 -7 -7 -7 -6 -5 -4 -5
-2 -1 -2 -1 -1 -2 -1 -2 -2 -3 -7 -7 -4 -3 -3 -3 -3 -3 -3 -2 -2 -6 -6 -4 -7 -7 -7 -8 -6 -5 -6 -7 -6 -8 -8 -7 -7 -8 -10 -11 -10 -8 -8 -8 -9 -8 -7 -6 -6 -6 -5 -5 -4 -5
-2 -2 -2 -2 -2 -2 -2 -3 -4 -7 -7 -6 -4 -6 -3 -4 -4 -4 -4 -3 -3 -4 -5 -7 -6 -8 -8 -8 -8 -8 -8 -11 -12 -8 -8 -8 -9 -11 -9 -7 -7 -9 -8 -7 -6 -6 -5 -5 -5 -6 -6 -5 -4 -5
-4 -3 -3 -4 -2 -3 -4 -4 -5 -7 -7 -5 -5 -5 -6 -6 -6 -5 -4 -3 -3 -3 -5 -6 -10 -9 -9 -9 -11 -13 -12 -8 -7 -9 -11 -10 -8 -7 -7 -7 -9 -9 -7 -5 -5 -4 -4 -4 -5 -5 -4 -4 -4 -5
-4 -4 -3 -3 -4 -5 -6 -5 -4 -5 -5 -5 -5 -5 -5 -6 -6 -5 -4 -4 -3 -4 -4 -4 -7 -8 -10 -13 -11 -9 -9 -10 -10 -8 -7 -7 -7 -7 -8 -9 -8 -7 -6 -6 -5 -5 -6 -5 -6 -5 -5 -5 -5 -6
-4 -3 -3 -4 -5 -5 -5 -6 -6 -6 -6 -6 -6 -5 -6 -6 -5 -5 -4 -4 -5 -4 -5 -7 -7 -8 -10 -10 -11 -11 -10 -9 -8 -7 -6 -6 -8 -8 -8 -8 -7 -6 -5 -6 -5 -5 -5 -5 -5 -5 -5 -5 -5 -5
-4 -4 -4 -4 -5 -6 -7 -7 -7 -7 -8 -7 -7 -6 -6 -5 -5 -5 -4 -4 -5 -6 -7 -8 -10 -11 -11 -11 -11 -9 -8 -7 -7 -7 -7 -7 -7 -7 -7 -7 -6 -5 -7 -5 -5 -5 -5 -5 -5 -5 -5 -5 -5 -6
-5 -4 -5 -5 -7 -7 -8 -6 -6 -5 -5 -6 -6 -6 -6 -6 -7 -6 -4 -4 -6 -10 -11 -10 -10 -10 -9 -9 -8 -8 -7 -7 -7 -7 -7 -7 -7 -7 -8 -7 -7 -8 -7 -6 -5 -5 -5 -5 -5 -5 -5 -6 -6 -6
-5 -5 -8 -8 -7 -7 -5 -6 -5 -5 -6 -6 -10 -10 -9 -7 -7 -5 -10 -8 -10 -11 -10 -10 -9 -9 -9 -9 -8 -8 -7 -8 -8 -8 -8 -7 -8 -8 -6 -7 -8 -6 -6 -6 -5 -5 -5 -4 -5 -5 -6 -6 -5 -6
-7 -6 -6 -6 -6 -5 -8 -10 -7 -8 -10 -12 -12 -13 -10 -8 -11 -12 -11 -10 -11 -12 -13 -12 -11 -10 -9 -9 -8 -9 -10 -8 -8 -8 -8 -7 -6 -5 -8 -9 -7 -6 -6 -6 -6 -5 -5 -5 -6 -6 -6 -7 -7 -7
-8 -5 -6 -7 -6 -8 -9 -11 -12 -10 -13 -12 -11 -8 -8 -11 -11 -10 -9 -12 -12 -13 -13 -11 -9 -9 -8 -8 -8 -8 -8 -8 -7 -7 -6 -5 -5 -6 -7 -7 -7 -7 -6 -6 -6 -5 -5 -5 -6 -6 -7 -7 -6 -6
-7 -7 -5 -6 -6 -7 -7 -7 -8 -9 -12 -11 -12 -11 -12 -7 -9 -10 -12 -13 -13 -13 -10 -9 -9 -8 -8 -8 -8 -8 -7 -7 -6 -6 -6 -6 -6 -7 -7 -7 -7 -6 -6 -6 -6 -6 -6 -5 -6 -7 -6 -6 -6 -7
-5 -6 -7 -6 -6 -6 -9 -9 -12 -10 -11 -8 -8 -11 -9 -9 -10 -12 -13 -11 -10 -9 -8 -8 -8 -8 -8 -7 -7 -6 -5 -5 -5 -5 -6 -6 -7 -7 -7 -7 -7 -7 -7 -7 -6 -6 -6 -6 -6 -6 -6 -6 -6 -7
-5 -6 -6 -6 -6 -7 -5 -7 -9 -8 -10 -10 -11 -12 -11 -11 -11 -11 -10 -10 -9 -9 -8 -8 -8 -6 -5 -4 -5 -5 -6 -6 -6 -7 -7 -7 -7 -7 -8 -8 -8 -8 -7 -6 -6 -6 -6 -7 -6 -6 -6 -6 -6 -7
-7 -8 -6 -7 -8 -8 -7 -9 -10 -11 -10 -10 -10 -9 -9 -9 -10 -10 -9 -8 -6 -6 -5 -5 -5 -5 -5 -6 -6 -7 -7 -7 -8 -7 -7 -8 -8 -8 -8 -8 -8 -8 -8 -8 -8 -8 -8 -8 -8 -7 -7 -7 -7 -7
-9 -7 -7 -8 -9 -9 -10 -10 -10 -10 -9 -9 -9 -8 -7 -8 -9 -7 -6 -5 -5 -5 -4 -5 -6 -6 -6 -7 -7 -7 -8 -8 -8 -8 -8 -8 -8 -8 -8 -8 -8 -9 -9 -9 -9 -9 -9 -9 -8 -8 -8 -8 -8 -9
-7 -7 -7 -9 -8 -8 -8 -7 -7 -7 -7 -7 -7 -8 -8 -5 -5 -5 -6 -6 -6 -7 -7 -7 -8 -8 -8 -8 -9 -9 -9 -9 -9 -9 -9 -9 -9 -9 -9 -9 -9 -9 -9 -10 -10 -10 -10 -10 -10 -10 -10 -10 -10 -11
-8 -10 -10 -7 -7 -6 -9 -9 -8 -8 -8 -8 -9 -9 -8 -6 -7 -9 -10 -10 -9 -9 -9 -9 -9 -10 -10 -10 -10 -10 -10 -10 -10 -10 -10 -10 -10 -10 -10 -10 -10 -10 -10 -10 -10 -10 -10 -11 -11 -11 -11 -11 -11 -12

GFSWCAN_850_dewp_015.txt.gz
Dewpoint
5 6 5 5 5 5 5 5 5 5 5 5 4 4 4 3 3 3 3 3 3 3 4 4 5 5 5 4 2 4 4 3 3 2 0 0 -2 1 3 1 1 1 1 1 2 3 3 -1 0 2 1 -0 1 2
3 5 6 5 5 4 5 5 5 5 6 5 5 5 5 4 5 5 5 5 4 4 4 4 4 4 4 5 5 4 4 3 4 3 2 0 3 0 0 5 -0 3 1 1 1 2 -1 -1 -0 -0 0 1 2 3
2 4 5 5 5 5 4 5 5 6 6 5 6 6 6 6 5 5 6 5 5 5 4 4 4 4 5 5 5 6 5 5 4 3 2 2 4 1 3 4 3 3 2 2 2 1 -0 0 1 1 2 2 3 2
2 3 4 5 5 5 5 5 5 5 5 6 6 6 6 6 6 6 6 6 6 5 5 3 3 3 2 2 3 3 3 5 5 5 4 2 3 3 4 4 4 4 3 3 3 2 2 2 2 3 3 3 1 1
1 3 4 4 6 5 5 5 5 5 5 5 5 5 6 6 6 6 6 6 6 6 4 4 3 2 3 3 2 3 3 4 5 6 4 3 4 3 3 2 3 3 3 4 4 2 2 2 4 3 3 1 -1 -3
1 2 3 3 4 5 4 5 5 5 5 5 5 5 5 6 6 6 6 4 4 5 6 3 4 3 2 3 3 5 4 5 5 4 5 4 3 3 3 4 2 2 2 2 3 2 3 4 2 1 -0 -2 -5 -4
0 1 1 2 2 3 4 5 5 5 5 5 5 5 6 6 6 6 5 4 3 5 5 5 4 4 4 4 4 4 4 4 5 5 5 3 4 4 2 5 2 2 2 2 2 3 3 1 -0 -1 -6 -4 -7 -9
-3 -2 -1 -0 1 2 1 3 4 5 5 5 5 6 5 5 5 5 5 4 3 5 5 2 2 3 2 3 3 4 4 4 4 4 4 3 4 4 4 3 2 2 1 1 1 1 1 -2 -6 -10 -14 -17 -18 -18
-2 -2 -0 0 -0 -1 -1 -0 1 3 4 5 5 5 5 4 4 4 5 5 5 5 4 2 2 3 3 3 3 3 3 2 3 2 2 3 2 4 3 2 1 1 1 0 -2 -3 -5 -5 -8 -10 -10 -13 -16 -16
-2 -2 -0 0 0 -0 -1 -2 -2 -1 1 3 4 4 2 3 3 2 3 3 4 3 2 1 1 2 3 3 2 2 2 1 2 1 2 1 2 0 -2 -2 -2 -3 -2 -3 -3 -1 -3 -7 -6 -8 -10 -12 -11 -8
-2 -1 -1 -2 -2 -1 0 1 1 2 3 3 3 1 1 2 2 3 2 1 1 0 0 0 1 1 2 2 1 2 1 0 1 -2 1 -1 -1 -3 -4 -3 -4 -3 -3 -3 -3 -3 -4 -9 -11 -9 -9 -12 -11 -8
-3 -1 -1 -2 -1 0 1 2 2 2 2 1 1 1 1 1 1 0 0 -1 -1 -1 -0 -1 0 1 1 1 1 -0 0 -0 -2 -3 -0 -0 -3 -3 -2 -2 -4 -5 -6 -8 -9 -10 -13 -12 -9 -8 -8 -9 -11 -8
-3 -1 -1 -2 -1 -0 -0 1 1 1 0 1 0 1 -0 -1 -1 -2 -0 -1 -1 -1 -0 0 -0 0 0 1 -1 -2 -1 -1 -2 -1 -2 -3 -3 -3 -5 -6 -9 -11 -10 -11 -14 -13 -10 -9 -9 -8 -8 -8 -8 -8
-4 -1 -1 -2 -1 -0 -1 -1 -0 -0 -2 -5 -4 -3 -5 -4 -3 -4 -4 -3 -1 -0 -0 0 -1 -1 -2 -3 -2 -2 -4 -2 -1 -2 -3 -4 -5 -7 -11 -12 -10 -10 -10 -10 -10 -9 -9 -10 -10 -9 -8 -8 -7 -6
-2 -1 -1 -1 -1 -0 -1 -2 -1 -1 -5 -10 -8 -7 -4 -3 -2 -1 -2 -1 -1 -0 -1 -1 -2 -2 -3 -6 -3 -4 -3 -2 -2 -5 -6 -6 -10 -11 -9 -8 -9 -10 -10 -8 -9 -10 -10 -9 -8 -8 -8 -6 -6 -5
-2 -2 -1 -1 -1 -0 -2 -2 -2 -3 -5 -9 -6 -4 -3 -3 -3 -3 -3 -2 -1 -2 -3 -4 -6 -9 -7 -8 -5 -4 -5 -5 -7 -7 -8 -9 -8 -7 -8 -10 -10 -9 -8 -10 -10 -9 -8 -7 -6 -6 -6 -5 -6 -6
-2 -2 -2 -1 -1 -2 -2 -2 -1 -3 -6 -8 -6 -3 -3 -3 -4 -3 -3 -3 -2 -4 -8 -5 -7 -9 -7 -9 -7 -6 -7 -8 -6 -10 -7 -6 -7 -9 -10 -8 -7 -8 -9 -10 -9 -8 -7 -7 -6 -5 -5 -5 -6 -5
-2 -3 -2 -1 -2 -2 -2 -2 -4 -5 -7 -7 -4 -5 -3 -4 -4 -3 -3 -3 -2 -4 -5 -7 -7 -9 -10 -8 -8 -8 -7 -8 -10 -8 -9 -10 -11 -10 -8 -7 -8 -8 -9 -8 -7 -7 -7 -7 -5 -5 -6 -5 -5 -5
-3 -2 -2 -2 -2 -2 -3 -4 -4 -8 -8 -6 -5 -6 -6 -5 -4 -5 -5 -4 -3 -3 -4 -6 -11 -9 -9 -9 -11 -14 -13 -10 -9 -10 -11 -11 -8 -7 -7 -8 -8 -8 -8 -7 -7 -7 -7 -6 -6 -6 -5 -5 -5 -5
-3 -2 -2 -3 -3 -5 -5 -4 -5 -6 -6 -6 -5 -5 -5 -6 -6 -6 -5 -4 -4 -3 -3 -4 -7 -8 -10 -11 -11 -10 -10 -9 -10 -9 -9 -8 -8 -7 -8 -7 -7 -7 -7 -8 -8 -9 -8 -5 -6 -6 -6 -6 -5 -5
-3 -3 -3 -3 -4 -6 -6 -6 -5 -6 -6 -6 -5 -5 -6 -6 -6 -6 -6 -4 -4 -4 -4 -6 -7 -7 -8 -9 -9 -10 -10 -10 -9 -7 -7 -7 -7 -7 -7 -7 -7 -7 -8 -8 -9 -9 -6 -6 -6 -6 -6 -6 -5 -5
-3 -3 -4 -4 -5 -6 -7 -7 -7 -7 -8 -7 -6 -6 -5 -5 -5 -6 -4 -5 -4 -7 -7 -8 -10 -11 -11 -11 -12 -10 -9 -9 -8 -8 -8 -7 -7 -7 -8 -7 -7 -7 -7 -8 -8 -6 -6 -6 -6 -6 -6 -5 -6 -5
-4 -4 -5 -6 -7 -7 -7 -6 -6 -6 -6 -6 -6 -6 -6 -6 -7 -7 -4 -4 -6 -13 -14 -12 -12 -11 -10 -10 -9 -9 -9 -9 -8 -7 -7 -7 -7 -8 -9 -8 -6 -5 -6 -10 -7 -6 -6 -6 -6 -6 -6 -5 -6 -6
-5 -5 -7 -7 -8 -7 -5 -6 -5 -5 -5 -6 -10 -10 -10 -7 -6 -5 -9 -6 -13 -13 -11 -11 -10 -10 -10 -10 -10 -10 -9 -8 -7 -8 -8 -9 -8 -8 -7 -7 -6 -5 -6 -8 -7 -6 -6 -6 -5 -6 -6 -5 -6 -6
-7 -6 -7 -7 -7 -7 -10 -10 -7 -7 -9 -13 -12 -13 -10 -8 -11 -13 -10 -9 -12 -13 -13 -14 -13 -12 -11 -11 -10 -9 -9 -9 -10 -9 -9 -8 -7 -7 -7 -7 -8 -7 -8 -7 -6 -6 -6 -6 -6 -6 -6 -6 -6 -6
-10 -6 -7 -8 -7 -10 -10 -11 -9 -11 -15 -13 -12 -8 -9 -12 -12 -11 -10 -13 -13 -14 -14 -13 -13 -11 -10 -8 -8 -8 -8 -8 -8 -7 -8 -7 -5 -5 -6 -6 -6 -7 -7 -7 -7 -7 -7 -7 -6 -6 -6 -5 -6 -6
-10 -7 -6 -6 -7 -7 -8 -8 -8 -9 -14 -11 -13 -12 -14 -10 -11 -10 -13 -13 -13 -13 -12 -10 -8 -8 -8 -8 -8 -7 -7 -6 -6 -5 -5 -5 -5 -6 -7 -7 -7 -7 -7 -7 -8 -7 -7 -7 -7 -6 -6 -6 -7 -6
-6 -7 -7 -6 -5 -6 -9 -11 -13 -12 -12 -9 -9 -11 -10 -10 -10 -13 -13 -12 -11 -11 -10 -10 -10 -9 -8 -7 -6 -5 -5 -5 -5 -6 -6 -6 -7 -7 -7 -7 -7 -8 -8 -8 -8 -7 -7 -7 -7 -7 -7 -6 -6 -6
-6 -5 -6 -6 -6 -6 -6 -8 -9 -8 -10 -9 -10 -12 -11 -11 -11 -11 -11 -10 -10 -10 -9 -9 -8 -7 -6 -5 -5 -6 -6 -6 -7 -8 -7 -8 -8 -8 -8 -8 -8 -8 -8 -9 -9 -8 -8 -8 -8 -8 -7 -7 -7 -7
-6 -6 -5 -6 -6 -6 -6 -7 -7 -9 -9 -9 -9 -9 -9 -9 -10 -10 -9 -9 -9 -8 -8 -7 -6 -6 -5 -6 -6 -6 -7 -7 -8 -8 -7 -8 -8 -8 -9 -8 -9 -9 -9 -9 -9 -10 -10 -10 -9 -9 -9 -9 -8 -8
-7 -6 -6 -6 -8 -8 -9 -10 -9 -9 -9 -9 -9 -8 -8 -8 -8 -7 -7 -7 -7 -6 -6 -6 -6 -6 -7 -7 -7 -8 -8 -8 -8 -8 -9 -9 -9 -8 -9 -9 -9 -9 -9 -9 -10 -10 -10 -10 -10 -10 -10 -10 -9 -9
-7 -7 -7 -12 -8 -9 -10 -9 -8 -8 -8 -7 -7 -8 -8 -7 -6 -7 -8 -9 -9 -9 -9 -9 -9 -9 -9 -9 -9 -9 -10 -10 -10 -10 -10 -10 -9 -9 -9 -9 -10 -10 -10 -10 -10 -10 -10 -10 -11 -11 -11 -11 -11 -11
-8 -7 -8 -9 -9 -11 -14 -13 -12 -12 -13 -12 -12 -12 -9 -8 -10 -13 -13 -13 -12 -12 -11 -10 -10 -10 -10 -11 -11 -11 -11 -11 -11 -11 -10 -10 -10 -10 -10 -10 -11 -11 -11 -11 -11 -11 -11 -11 -12 -12 -12 -11 -11 -12

GFSWCAN_850_dewp_021.txt.gz
Dewpoint
5 6 5 4 5 4 3 3 1 1 0 1 1 1 2 2 2 2 2 1 0 -0 2 3 2 2 3 2 4 4 4 4 3 4 4 3 3 2 2 1 1 2 2 3 3 4 4 -2 -0 2 1 0 2 2
3 5 6 6 5 5 4 3 3 2 2 2 3 3 3 3 3 2 2 2 2 1 2 4 4 4 4 3 3 4 2 3 4 3 2 1 3 0 1 5 -0 3 2 3 2 3 -1 -1 -1 -1 0 3 3 3
2 3 5 5 5 4 5 4 4 3 4 4 3 4 4 4 4 3 3 3 2 3 3 4 4 4 5 5 4 4 4 3 3 3 1 2 4 1 4 3 3 1 0 3 2 1 1 1 1 2 3 3 3 2
2 2 3 4 5 4 4 4 4 4 4 5 5 5 5 5 5 4 4 4 4 3 4 3 3 2 3 4 4 4 5 5 4 4 3 2 4 2 3 3 3 2 3 4 3 3 2 2 3 4 3 2 1 -2
2 -0 2 2 5 5 4 4 4 4 5 5 6 6 5 5 5 5 5 5 5 4 3 3 3 2 2 2 2 3 3 5 6 5 3 3 3 3 3 2 3 3 4 4 4 2 3 3 2 2 1 -1 -7 -8
2 0 2 2 3 5 5 4 4 4 4 4 5 6 6 5 5 5 5 5 5 4 4 2 3 3 2 2 3 3 3 5 5 5 5 4 3 3 3 4 2 2 3 2 3 3 4 2 1 -1 -6 -10 -8 -8
0 1 1 2 3 3 5 4 4 4 4 4 5 5 4 4 4 5 4 3 4 5 3 4 4 4 4 3 3 3 4 5 5 5 4 4 4 4 2 4 3 2 2 2 2 2 1 0 -1 -8 -7 -7 -8 -11
-2 -1 -0 1 2 3 5 4 4 4 4 4 4 5 5 6 6 5 5 5 3 5 3 2 3 3 3 3 3 4 4 4 4 4 4 4 3 3 3 1 -1 -1 0 -0 -0 1 -1 -5 -5 -5 -8 -10 -11 -11
-2 -2 -1 1 2 2 3 4 5 5 4 5 6 6 6 6 5 5 4 6 5 4 5 3 3 3 3 3 3 3 3 2 3 2 2 3 2 3 -1 -2 -2 -1 -0 -4 -3 -4 -4 -5 -11 -13 -13 -12 -11 -10
-2 -2 -1 0 -1 1 2 3 4 5 5 5 5 5 4 3 4 5 5 5 4 4 3 2 2 2 3 3 2 2 2 1 2 1 1 1 2 -3 -2 -3 -3 -3 -3 -3 -6 -14 -17 -17 -15 -13 -10 -10 -10 -10
-2 -2 -2 -1 -0 -1 1 1 3 4 4 4 2 1 2 2 2 2 2 2 1 0 0 1 1 1 2 2 2 2 1 1 2 -1 1 2 1 -3 -3 -6 -8 -9 -12 -14 -14 -14 -12 -11 -10 -10 -11 -11 -11 -9
-2 -1 -1 -1 -1 0 -0 0 2 2 1 1 1 0 0 0 0 0 0 -1 0 1 -0 -0 0 1 1 2 2 -0 1 -0 0 -2 -1 -0 -3 -2 -4 -8 -10 -12 -12 -12 -13 -12 -12 -11 -11 -11 -11 -10 -9 -8
-2 -0 -1 -0 1 1 1 0 0 0 0 0 0 -0 -0 -1 1 1 1 -1 -0 -1 -1 -0 -0 0 0 1 -1 -0 -0 -1 -3 -2 -1 -3 -3 -2 -7 -10 -11 -10 -11 -13 -13 -12 -10 -10 -11 -10 -9 -9 -8 -8
-2 -0 -2 -0 1 1 1 2 2 1 1 0 0 -0 -1 -1 -2 -3 -3 -3 -2 -1 -0 -0 -1 -1 -1 -1 -3 -1 -3 -3 -1 -2 -2 -3 -3 -5 -8 -9 -9 -12 -14 -14 -12 -9 -9 -9 -9 -9 -9 -9 -9 -8
-2 -0 -1 -0 0 0 1 1 1 -1 -6 -6 -5 -2 -3 -4 -2 -2 -1 -1 -1 -0 -0 -1 -2 -3 -3 -3 -3 -3 -2 -2 -3 -3 -5 -3 -6 -8 -9 -8 -10 -13 -13 -11 -9 -8 -8 -8 -8 -9 -10 -10 -9 -7
-1 -1 -2 -2 -0 0 1 1 1 -2 -6 -10 -6 -5 -3 -3 -3 -2 -1 -1 -1 -1 -1 -3 -6 -4 -4 -4 -3 -3 -3 -4 -5 -6 -5 -8 -8 -9 -11 -13 -13 -12 -10 -8 -7 -8 -8 -8 -8 -9 -11 -10 -9 -8
-1 -1 -2 -2 -0 0 0 -1 -2 -3 -6 -9 -6 -4 -4 -4 -3 -3 -3 -2 -1 -3 -5 -7 -7 -7 -7 -6 -4 -5 -5 -6 -7 -11 -12 -10 -11 -13 -14 -13 -13 -10 -8 -7 -8 -8 -8 -8 -8 -8 -10 -11 -8 -7
-1 -2 -2 -1 -1 -0 -1 -3 -4 -5 -7 -6 -6 -5 -4 -4 -4 -3 -3 -3 -2 -4 -7 -7 -10 -9 -7 -7 -7 -8 -7 -7 -10 -11 -11 -9 -10 -11 -11 -11 -10 -9 -8 -7 -7 -8 -8 -8 -8 -8 -9 -9 -7 -7
-2 -2 -1 -1 -1 -2 -2 -3 -5 -7 -7 -6 -5 -4 -4 -4 -4 -4 -3 -3 -3 -4 -6 -6 -9 -7 -7 -10 -10 -9 -11 -10 -10 -8 -9 -10 -11 -10 -9 -9 -8 -8 -7 -7 -8 -9 -9 -7 -6 -6 -8 -7 -6 -7
-2 -2 -1 -1 -1 -5 -5 -5 -6 -8 -7 -6 -5 -5 -6 -6 -5 -5 -4 -3 -3 -3 -3 -4 -6 -7 -10 -12 -12 -10 -8 -7 -8 -9 -11 -11 -9 -9 -9 -9 -8 -7 -7 -8 -9 -9 -8 -7 -6 -6 -7 -7 -6 -6
-2 -2 -2 -2 -4 -7 -7 -5 -6 -6 -6 -5 -5 -5 -5 -5 -6 -6 -5 -3 -3 -4 -5 -6 -6 -8 -8 -7 -7 -8 -9 -10 -10 -9 -9 -9 -9 -8 -9 -8 -7 -8 -9 -9 -8 -7 -6 -7 -7 -7 -7 -7 -7 -6
-3 -2 -2 -3 -5 -7 -7 -7 -6 -7 -7 -6 -5 -5 -5 -6 -6 -6 -5 -5 -5 -5 -7 -9 -11 -12 -12 -11 -12 -12 -11 -10 -10 -9 -9 -9 -9 -9 -8 -8 -9 -9 -9 -8 -7 -6 -6 -8 -8 -7 -7 -7 -7 -7
-3 -3 -5 -6 -7 -8 -6 -6 -7 -7 -8 -7 -6 -7 -7 -6 -6 -6 -6 -6 -6 -15 -15 -14 -14 -13 -12 -12 -11 -12 -12 -11 -11 -11 -10 -9 -9 -9 -10 -10 -9 -8 -8 -6 -6 -6 -6 -7 -7 -7 -8 -7 -7 -7
-5 -6 -7 -8 -8 -7 -6 -6 -6 -6 -6 -8 -11 -10 -10 -8 -7 -7 -7 -7 -13 -16 -15 -14 -13 -13 -13 -14 -14 -13 -12 -11 -10 -9 -9 -9 -9 -9 -8 -8 -8 -7 -6 -5 -6 -7 -7 -8 -8 -8 -8 -8 -8 -7
-8 -7 -8 -8 -7 -9 -13 -8 -7 -7 -11 -12 -9 -11 -9 -8 -11 -9 -8 -8 -14 -15 -14 -14 -13 -13 -13 -14 -14 -13 -10 -9 -9 -9 -10 -9 -7 -7 -7 -6 -6 -5 -6 -7 -7 -8 -8 -9 -9 -8 -8 -8 -8 -8
-11 -7 -8 -9 -8 -11 -11 -10 -9 -8 -11 -12 -10 -9 -9 -12 -11 -9 -10 -12 -15 -15 -14 -13 -12 -11 -11 -11 -10 -9 -9 -9 -9 -9 -10 -7 -6 -5 -6 -6 -6 -7 -7 -8 -8 -8 -9 -9 -9 -9 -8 -8 -9 -8
-9 -8 -7 -8 -8 -8 -9 -10 -9 -11 -11 -11 -13 -13 -14 -10 -11 -10 -11 -13 -14 -13 -11 -10 -10 -10 -10 -10 -9 -9 -9 -8 -8 -7 -6 -5 -5 -6 -6 -7 -8 -7 -8 -8 -8 -8 -9 -9 -9 -9 -9 -9 -10 -10
-7 -7 -9 -7 -7 -7 -11 -12 -14 -10 -12 -9 -10 -11 -11 -11 -10 -11 -11 -11 -11 -11 -9 -8 -8 -9 -9 -9 -9 -8 -7 -7 -6 -7 -7 -6 -7 -7 -8 -8 -8 -8 -8 -9 -9 -9 -9 -9 -9 -9 -10 -10 -11 -11
-6 -6 -7 -8 -8 -8 -7 -9 -9 -8 -9 -9 -11 -12 -11 -10 -10 -9 -9 -8 -8 -8 -8 -8 -8 -8 -8 -7 -7 -7 -7 -7 -6 -6 -6 -7 -7 -8 -8 -8 -9 -9 -9 -9 -9 -9 -9 -10 -10 -10 -10 -10 -11 -11
-7 -7 -7 -9 -10 -10 -7 -8 -8 -8 -8 -8 -8 -8 -8 -9 -9 -9 -9 -9 -9 -9 -9 -9 -10 -10 -9 -9 -8 -8 -8 -8 -8 -8 -9 -9 -9 -9 -9 -9 -9 -9 -9 -10 -10 -10 -10 -10 -10 -11 -11 -12 -12 -11
-6 -7 -6 -7 -7 -7 -7 -7 -8 -9 -11 -14 -18 -16 -15 -12 -11 -11 -12 -13 -13 -13 -12 -12 -12 -11 -12 -11 -11 -10 -10 -10 -10 -10 -10 -10 -11 -11 -11 -10 -10 -10 -10 -10 -11 -12 -12 -13 -13 -12 -12 -12 -12 -12
-7 -7 -7 -10 -8 -9 -9 -10 -12 -15 -18 -18 -17 -14 -12 -9 -12 -14 -15 -15 -15 -15 -14 -14 -13 -13 -13 -13 -13 -13 -12 -12 -12 -12 -12 -12 -12 -12 -11 -11 -11 -12 -12 -13 -14 -14 -14 -13 -13 -13 -13 -13 -13 -13
-8 -9 -8 -8 -9 -13 -13 -16 -15 -14 -13 -13 -11 -9 -11 -13 -16 -16 -16 -16 -16 -16 -15 -15 -15 -15 -15 -14 -14 -14 -14 -14 -14 -13 -13 -13 -13 -12 -12 -12 -13 -13 -14 -14 -14 -14 -14 -14 -14 -14 -14 -14 -14 -14

GFSWCAN_850_dewp_024.txt.gz
Dewpoint
5 6 5 5 5 4 3 2 -0 -1 -2 -2 -2 -1 -0 1 2 2 1 -0 -2 -1 3 3 2 4 3 4 7 5 6 6 5 7 7 6 6 5 3 1 3 4 7 6 5 6 6 -1 -0 4 2 2 2 3
4 5 5 5 5 5 4 3 2 1 -1 -1 -0 1 1 1 2 2 1 1 -0 -1 2 3 2 1 2 2 4 5 5 5 6 7 5 4 6 4 7 6 0 3 2 2 2 3 -1 -1 0 1 3 3 4 3
3 4 5 5 5 5 4 4 3 2 2 1 1 2 3 2 2 2 2 1 1 1 4 4 4 4 4 3 3 5 4 4 5 4 5 4 5 4 6 5 3 1 0 3 3 0 -0 1 2 4 3 3 2 1
2 3 4 5 6 4 4 4 4 3 3 3 3 4 4 4 3 3 3 2 2 2 3 5 3 4 4 4 4 4 4 3 4 3 4 4 7 3 6 4 4 2 1 2 2 2 2 2 4 3 2 1 -1 -4
2 1 2 3 5 5 5 4 4 4 4 5 5 5 5 5 5 5 4 4 4 3 5 4 3 3 3 3 4 5 5 5 5 5 4 6 5 4 4 3 4 2 2 4 5 3 4 3 2 1 1 -4 -6 -7
2 0 -0 2 3 4 5 4 4 4 5 5 5 6 5 5 5 5 5 5 4 4 3 6 3 3 2 2 3 4 6 6 5 5 5 4 3 3 4 5 2 2 3 3 3 4 3 2 1 -3 -5 -6 -7 -7
-1 0 -1 2 3 3 4 5 4 4 4 4 4 5 5 5 4 4 4 3 5 5 3 4 4 4 3 4 4 4 4 5 6 5 4 4 4 4 3 4 3 1 0 1 3 2 1 -0 -1 -4 -5 -6 -7 -10
-3 -2 -1 -0 2 3 2 4 5 4 4 4 4 4 5 5 4 5 4 3 4 4 3 3 4 3 3 3 3 3 4 4 4 4 3 4 4 4 4 2 -0 -1 -1 -0 1 1 0 -3 -4 -5 -8 -10 -10 -11
-2 -2 -1 1 1 2 3 3 5 5 4 4 4 5 6 6 6 6 4 4 4 3 4 4 5 5 2 2 2 3 3 3 3 2 2 3 2 4 2 -1 -1 -1 -1 -2 -3 -4 -7 -8 -11 -11 -11 -11 -10 -9
-2 -2 -2 0 -1 1 2 3 4 5 5 5 5 5 5 5 5 5 5 5 5 5 4 3 3 4 3 2 2 3 2 3 4 2 1 1 2 -2 -1 -1 -2 -2 -3 -2 -4 -10 -11 -10 -11 -10 -9 -8 -8 -9
-2 -3 -3 -2 -1 -1 1 2 3 4 5 5 4 3 2 3 4 4 3 3 2 1 1 1 2 2 2 3 2 2 2 1 3 1 3 2 2 -1 -2 -4 -5 -8 -7 -9 -9 -10 -10 -10 -9 -8 -8 -8 -7 -8
-2 -2 -1 -2 -2 -0 0 1 1 2 2 3 3 1 1 2 1 1 1 -1 1 3 -0 0 1 1 1 2 1 0 2 1 2 -1 1 1 -1 -2 -3 -5 -8 -10 -9 -10 -10 -10 -10 -8 -7 -7 -8 -9 -10 -9
-2 -2 -1 -1 1 1 -1 0 0 1 0 1 1 -0 -0 -1 2 2 2 2 2 -0 -0 -0 -0 0 0 1 -0 1 2 2 -2 -0 0 -1 -2 -3 -4 -6 -7 -8 -11 -14 -12 -10 -8 -8 -9 -9 -10 -10 -9 -10
-2 -1 -1 -0 1 1 1 -0 1 -0 0 -0 -0 0 1 1 1 1 1 1 -1 -0 -0 0 -1 0 -1 -0 -1 2 -1 -2 0 -0 0 -2 -2 -2 -4 -6 -8 -9 -11 -14 -14 -12 -10 -9 -9 -9 -9 -9 -10 -10
-2 -0 -1 0 0 1 1 0 0 -0 -1 -1 -1 0 -0 -3 -2 -1 -1 -1 -1 -0 -0 -1 -1 -1 -1 -1 -1 -1 -1 -0 -1 -1 -2 -3 -2 -4 -6 -9 -7 -9 -13 -14 -12 -10 -8 -8 -8 -8 -9 -9 -8 -9
-2 -1 -1 -0 0 0 0 -0 -0 -0 -5 -7 -4 -2 -3 -1 -2 -1 -1 -1 -0 -0 -0 -2 -1 -0 -1 -1 -1 -1 -1 -2 -2 -3 -2 -3 -5 -9 -10 -13 -15 -14 -13 -12 -9 -8 -8 -8 -8 -9 -9 -9 -10 -10
-2 -1 -2 -0 0 0 -0 -1 -1 -3 -2 -7 -3 -3 -3 -2 -1 -2 -1 -1 -1 -2 -1 -3 -2 -2 -4 -2 -2 -3 -2 -3 -4 -3 -6 -9 -11 -11 -12 -12 -13 -13 -12 -10 -9 -8 -7 -8 -9 -9 -9 -9 -8 -8
-1 -1 -2 -1 -0 -0 -2 -3 -4 -5 -5 -6 -4 -4 -4 -4 -3 -3 -3 -1 -1 -4 -6 -5 -8 -5 -4 -4 -4 -4 -5 -5 -7 -11 -10 -10 -10 -10 -11 -12 -12 -11 -10 -9 -8 -7 -7 -9 -9 -6 -6 -5 -6 -6
-1 -1 -1 -1 -0 -1 -2 -2 -5 -5 -5 -5 -5 -4 -4 -4 -4 -3 -3 -2 -3 -5 -6 -6 -4 -5 -6 -8 -5 -5 -8 -8 -7 -8 -8 -8 -10 -11 -11 -11 -11 -10 -9 -9 -7 -7 -8 -8 -8 -7 -6 -6 -6 -7
-1 -1 -1 -1 -1 -2 -3 -4 -7 -7 -5 -5 -4 -5 -5 -4 -4 -4 -3 -2 -3 -4 -2 -3 -4 -5 -6 -11 -13 -13 -12 -9 -7 -6 -7 -7 -8 -10 -10 -10 -9 -8 -8 -7 -8 -9 -9 -7 -6 -5 -6 -6 -7 -7
-2 -2 -2 -1 -4 -7 -6 -5 -6 -6 -6 -4 -5 -5 -5 -5 -5 -4 -4 -3 -3 -4 -5 -5 -6 -9 -9 -8 -8 -7 -7 -8 -8 -8 -8 -7 -7 -7 -10 -9 -9 -7 -8 -10 -9 -8 -8 -6 -6 -6 -7 -7 -7 -7
-2 -2 -2 -3 -4 -8 -8 -7 -6 -7 -6 -5 -5 -6 -4 -4 -5 -5 -5 -4 -4 -5 -5 -8 -9 -9 -10 -12 -13 -12 -12 -12 -11 -11 -10 -10 -9 -7 -7 -9 -9 -10 -9 -9 -8 -8 -6 -6 -6 -7 -7 -7 -7 -7
-2 -2 -3 -4 -7 -7 -6 -6 -6 -8 -6 -5 -6 -5 -5 -5 -6 -6 -5 -6 -6 -10 -13 -14 -15 -14 -13 -13 -13 -13 -14 -13 -12 -12 -11 -10 -9 -9 -9 -9 -8 -8 -7 -7 -7 -6 -5 -6 -8 -8 -8 -8 -8 -8
-3 -4 -4 -7 -8 -6 -6 -6 -6 -6 -6 -6 -6 -6 -7 -6 -7 -6 -6 -6 -11 -15 -15 -14 -13 -12 -13 -14 -14 -14 -14 -14 -13 -12 -9 -9 -9 -9 -9 -9 -8 -7 -6 -6 -5 -6 -7 -7 -8 -8 -8 -8 -8 -8
-5 -6 -8 -7 -7 -8 -7 -6 -7 -6 -6 -7 -6 -6 -7 -8 -6 -6 -6 -8 -13 -15 -14 -14 -13 -13 -13 -12 -12 -12 -12 -11 -9 -9 -9 -10 -10 -10 -9 -5 -5 -6 -7 -7 -7 -7 -8 -8 -8 -8 -8 -8 -8 -9
-7 -7 -7 -7 -7 -8 -8 -7 -7 -7 -7 -7 -7 -9 -8 -6 -6 -7 -8 -7 -12 -12 -12 -12 -11 -10 -9 -9 -9 -9 -8 -9 -9 -9 -10 -9 -8 -7 -7 -6 -6 -6 -7 -8 -8 -9 -9 -9 -8 -9 -9 -9 -10 -10
-7 -7 -7 -8 -8 -9 -8 -9 -9 -8 -7 -6 -7 -8 -7 -6 -7 -9 -9 -10 -9 -11 -10 -10 -9 -8 -8 -8 -8 -8 -8 -7 -6 -7 -7 -7 -6 -6 -7 -6 -6 -7 -8 -8 -8 -8 -9 -9 -9 -9 -9 -10 -10 -11
-7 -7 -7 -7 -7 -8 -8 -8 -7 -7 -7 -8 -8 -7 -7 -7 -8 -8 -10 -10 -9 -9 -9 -9 -9 -9 -8 -8 -8 -7 -7 -7 -7 -7 -7 -6 -6 -7 -7 -7 -7 -8 -8 -9 -9 -9 -9 -9 -9 -10 -10 -10 -10 -10
-6 -7 -7 -7 -8 -7 -7 -7 -7 -8 -9 -8 -7 -7 -8 -10 -10 -9 -9 -10 -11 -12 -12 -12 -11 -11 -11 -11 -11 -10 -9 -9 -9 -9 -8 -7 -7 -8 -8 -9 -9 -9 -9 -9 -9 -9 -10 -10 -10 -10 -10 -11 -11 -11
-7 -7 -7 -7 -7 -6 -6 -8 -7 -8 -9 -9 -9 -8 -8 -9 -11 -12 -13 -13 -13 -13 -13 -13 -13 -13 -12 -12 -12 -12 -12 -11 -11 -12 -11 -11 -11 -11 -10 -10 -10 -10 -10 -10 -10 -10 -10 -11 -12 -12 -12 -12 -12 -12
-7 -7 -6 -7 -7 -6 -7 -8 -7 -7 -7 -8 -10 -10 -9 -12 -13 -13 -13 -15 -15 -15 -15 -15 -14 -14 -15 -15 -14 -14 -14 -13 -13 -13 -13 -13 -12 -12 -12 -12 -11 -11 -11 -11 -12 -13 -13 -14 -13 -13 -13 -13 -13 -13
-8 -7 -7 -7 -7 -8 -9 -9 -10 -11 -14 -16 -13 -13 -11 -12 -14 -16 -15 -16 -16 -16 -16 -16 -16 -16 -15 -15 -15 -15 -15 -15 -14 -14 -14 -13 -13 -13 -13 -13 -12 -12 -12 -13 -14 -14 -14 -14 -14 -14 -14 -14 -14 -14
-9 -9 -10 -10 -9 -10 -13 -16 -14 -12 -12 -11 -11 -11 -13 -14 -15 -16 -16 -16 -17 -16 -16 -16 -16 -15 -15 -16 -16 -15 -15 -15 -15 -15 -15 -15 -14 -14 -14 -14 -13 -13 -14 -14 -14 -15 -15 -15 -15 -15 -15 -15 -15 -16

GFSWCAN_850_dewp_030.txt.gz
Dewpoint
5 4 5 5 3 2 0 -1 -2 -3 -4 -4 -5 -5 -4 -0 1 -0 -1 -2 4 7 6 6 5 5 4 5 9 5 7 7 9 6 6 8 8 7 4 0 5 5 6 6 6 6 6 -1 1 5 4 3 4 3
5 5 4 4 5 4 2 0 -2 -2 -3 -4 -5 -5 -4 -2 0 1 4 -1 -2 5 8 7 5 5 5 6 5 5 4 6 7 7 6 7 8 6 7 7 -3 4 5 6 5 5 0 1 4 4 4 4 3 2
6 5 5 4 5 5 4 2 -0 -1 -2 -3 -4 -4 -3 -2 -0 1 4 -0 2 3 6 5 7 2 3 4 6 6 6 4 4 7 6 6 5 6 6 7 2 -1 -2 6 4 1 -0 3 4 3 3 3 2 -1
5 5 5 5 5 5 5 3 1 0 -1 -2 -2 -2 -2 -2 -0 0 5 0 5 3 5 7 6 5 1 1 4 6 6 5 7 6 5 4 5 4 8 5 5 4 1 2 2 0 0 4 4 3 3 2 -2 -3
3 5 5 5 5 5 5 4 3 2 1 0 0 0 0 0 1 1 1 1 2 7 5 7 5 5 3 3 6 6 6 6 6 6 4 5 6 6 6 6 7 2 2 5 5 4 4 4 3 3 1 -1 -4 -5
1 2 4 5 5 5 5 5 4 3 3 3 2 3 2 2 2 5 6 2 2 5 2 6 6 5 4 4 6 7 6 6 7 7 6 7 4 4 6 6 1 -2 -1 2 3 4 4 3 2 1 -1 -4 -5 -6
-0 1 2 3 5 5 5 5 4 4 4 4 4 4 4 4 4 6 5 7 4 3 2 4 7 5 4 5 6 6 6 6 6 5 6 6 5 4 4 6 -0 -1 2 3 3 2 2 2 1 -0 -2 -5 -8 -10
-1 -0 2 2 3 4 5 4 4 4 4 5 5 5 5 5 5 6 3 2 4 5 4 3 5 5 4 5 5 5 5 5 5 5 5 4 4 5 6 3 1 1 1 3 3 2 2 1 -0 -4 -7 -10 -10 -10
-2 -1 -0 1 2 2 3 5 5 4 4 5 5 4 4 4 5 5 4 3 5 6 4 3 4 5 4 4 4 3 4 4 4 4 4 4 4 5 4 3 2 1 0 1 1 -1 -3 -5 -8 -9 -10 -10 -10 -10
-3 -3 -3 -2 -2 0 2 3 3 5 4 4 4 5 5 6 5 3 3 3 3 4 5 3 4 5 3 3 3 2 3 4 4 3 3 2 3 3 2 1 1 0 1 0 -1 -5 -7 -8 -8 -9 -9 -9 -8 -7
-3 -3 -4 -4 -3 -3 -1 1 2 4 5 5 5 5 4 5 5 5 5 4 4 3 4 4 5 4 4 3 3 3 2 3 4 4 4 3 3 2 2 0 1 0 1 -2 -5 -7 -8 -9 -9 -9 -9 -7 -7 -7
-3 -2 -2 -2 -2 -1 0 1 3 4 4 4 4 4 3 4 3 3 2 2 1 4 1 1 2 3 2 3 2 1 3 2 4 2 3 3 1 0 -0 -1 -1 -2 -5 -7 -8 -9 -9 -10 -9 -8 -9 -11 -10 -9
-2 -2 -1 1 0 0 0 2 2 3 2 3 2 2 1 -0 1 3 3 3 3 0 0 0 0 1 1 2 0 0 2 3 1 3 2 1 -0 -1 -2 -3 -3 -5 -6 -8 -9 -9 -10 -12 -14 -16 -13 -11 -10 -10
-2 -2 -1 -0 0 -0 0 1 1 2 2 1 -0 1 1 2 1 1 1 1 0 1 0 1 -0 0 0 0 0 2 1 2 2 3 2 1 -2 -2 -3 -3 -4 -5 -6 -7 -8 -11 -11 -11 -15 -15 -12 -11 -9 -10
-2 -2 -1 -1 -0 1 1 1 1 0 -0 -0 -0 1 1 -1 -1 -1 -1 -1 -0 0 0 0 -0 0 0 1 1 1 1 2 2 3 2 -1 -2 -3 -3 -4 -5 -6 -7 -10 -10 -11 -13 -13 -12 -12 -10 -9 -9 -10
-3 -1 -1 -1 -1 0 0 0 0 -1 -2 -1 -1 -0 -1 -0 -1 -1 -1 -1 -0 -0 -0 0 0 1 1 1 1 2 2 2 3 1 -1 -2 -2 -3 -3 -5 -6 -11 -14 -14 -16 -15 -11 -9 -7 -8 -8 -8 -9 -7
-4 -0 -1 -1 -1 -0 -0 0 -0 -1 -5 -2 -1 -1 -1 -1 -1 -1 -1 -0 -0 -0 0 0 1 -0 -0 1 1 1 2 1 -1 -2 -2 -2 -3 -4 -6 -8 -9 -8 -8 -10 -9 -9 -8 -8 -10 -8 -8 -7 -6 -5
-1 -2 -1 -0 -0 -1 -1 -2 -4 -3 -3 -2 -0 -1 -2 -1 -1 -1 -1 -1 -1 -2 -1 -1 -2 -1 -0 -1 -1 -0 -3 -3 -2 -2 -4 -6 -7 -7 -7 -6 -8 -7 -9 -10 -10 -9 -9 -8 -6 -6 -6 -6 -6 -5
-2 -2 -1 -1 -1 -1 -1 -4 -1 -2 -2 -2 -2 -2 -2 -2 -2 -2 -1 -1 -2 -4 -4 -4 -1 -3 -2 -6 -3 -3 -3 -4 -5 -6 -7 -7 -7 -7 -7 -9 -11 -12 -12 -9 -7 -6 -6 -6 -6 -7 -7 -5 -4 -5
-3 -2 -1 -1 -1 -1 -3 -3 -3 -3 -3 -3 -2 -2 -3 -3 -3 -2 -2 -3 -3 -3 -2 -2 -3 -4 -4 -6 -7 -7 -7 -6 -7 -6 -6 -7 -8 -8 -8 -7 -7 -7 -6 -6 -6 -6 -5 -5 -6 -6 -5 -5 -5 -5
-3 -3 -2 -1 -1 -2 -3 -3 -3 -3 -3 -4 -3 -3 -3 -3 -3 -3 -2 -2 -3 -2 -3 -4 -4 -3 -3 -5 -7 -9 -8 -7 -6 -7 -7 -7 -8 -8 -9 -10 -8 -6 -6 -5 -5 -6 -8 -7 -7 -5 -5 -6 -6 -6
-3 -2 -2 -1 -3 -4 -3 -4 -3 -3 -3 -4 -4 -3 -3 -3 -3 -3 -4 -3 -3 -4 -5 -5 -5 -5 -6 -6 -6 -6 -8 -10 -12 -11 -10 -9 -7 -7 -6 -7 -6 -6 -5 -6 -7 -7 -6 -5 -5 -6 -6 -6 -7 -7
-2 -2 -2 -3 -3 -4 -4 -4 -4 -4 -4 -3 -4 -4 -4 -4 -4 -5 -4 -5 -5 -5 -5 -5 -6 -6 -9 -8 -10 -13 -13 -12 -10 -7 -7 -7 -6 -6 -5 -6 -6 -6 -6 -6 -7 -6 -7 -6 -7 -7 -7 -8 -8 -8
-3 -3 -4 -4 -3 -4 -4 -4 -5 -5 -5 -4 -4 -4 -5 -5 -5 -5 -5 -6 -6 -6 -6 -6 -6 -6 -7 -7 -7 -8 -7 -7 -6 -6 -6 -7 -7 -7 -6 -6 -6 -7 -6 -6 -6 -5 -6 -6 -7 -7 -7 -8 -8 -8
-3 -4 -4 -5 -5 -5 -5 -5 -5 -5 -5 -5 -5 -5 -5 -5 -5 -5 -5 -4 -5 -5 -5 -4 -5 -6 -7 -6 -6 -5 -5 -5 -6 -6 -8 -7 -6 -6 -6 -7 -8 -8 -8 -6 -5 -6 -6 -6 -7 -8 -8 -9 -8 -9
-4 -5 -4 -5 -5 -5 -5 -5 -5 -5 -5 -5 -5 -5 -5 -5 -5 -6 -6 -5 -6 -7 -7 -7 -7 -6 -6 -6 -7 -8 -10 -12 -14 -12 -10 -11 -11 -10 -8 -8 -8 -8 -8 -7 -7 -6 -6 -7 -8 -8 -9 -9 -9 -9
-4 -6 -6 -7 -6 -6 -5 -5 -6 -6 -5 -5 -5 -6 -5 -5 -6 -5 -7 -7 -8 -8 -9 -9 -9 -9 -10 -9 -11 -11 -11 -11 -12 -12 -12 -11 -9 -9 -9 -10 -10 -10 -10 -10 -9 -9 -8 -8 -9 -9 -9 -9 -9 -10
-6 -5 -6 -6 -6 -6 -6 -6 -6 -6 -6 -7 -6 -6 -6 -6 -5 -8 -9 -10 -10 -10 -10 -10 -11 -13 -11 -12 -12 -12 -12 -14 -14 -14 -14 -10 -10 -11 -11 -12 -12 -11 -11 -11 -10 -10 -10 -10 -10 -10 -10 -10 -10 -11
-5 -5 -6 -6 -5 -5 -5 -6 -6 -7 -7 -6 -5 -6 -5 -9 -10 -11 -11 -10 -10 -11 -12 -13 -12 -13 -13 -13 -13 -13 -13 -14 -15 -15 -15 -14 -14 -15 -15 -14 -14 -14 -13 -13 -12 -12 -12 -12 -11 -11 -11 -11 -12 -12
-5 -6 -6 -6 -6 -5 -4 -4 -4 -5 -5 -5 -5 -7 -9 -12 -12 -11 -12 -12 -13 -13 -13 -13 -13 -14 -14 -14 -14 -14 -14 -15 -15 -15 -16 -16 -16 -16 -16 -15 -15 -15 -14 -14 -13 -13 -13 -13 -12 -12 -12 -13 -13 -14
-6 -5 -5 -5 -6 -5 -6 -6 -8 -8 -7 -5 -5 -6 -9 -12 -13 -13 -13 -14 -14 -14 -14 -15 -15 -15 -16 -16 -16 -16 -16 -16 -16 -17 -17 -17 -17 -17 -17 -17 -16 -16 -15 -15 -14 -14 -14 -14 -14 -14 -14 -14 -14 -15
-6 -6 -7 -7 -5 -6 -7 -6 -6 -6 -6 -6 -6 -9 -10 -10 -11 -14 -15 -15 -15 -15 -17 -19 -20 -19 -21 -19 -18 -18 -17 -18 -18 -18 -18 -18 -18 -18 -18 -17 -17 -17 -16 -16 -16 -16 -16 -16 -16 -15 -15 -15 -15 -16
-7 -7 -7 -7 -7 -7 -7 -8 -10 -10 -8 -9 -8 -10 -11 -10 -11 -14 -15 -16 -18 -20 -22 -22 -22 -21 -18 -18 -21 -19 -18 -21 -21 -19 -19 -19 -19 -19 -19 -18 -18 -17 -17 -17 -17 -18 -17 -17 -16 -16 -16 -16 -18 -19

GFSWCAN_850_dewp_036.txt.gz
Dewpoint
4 5 4 1 0 -0 -1 -1 -2 -3 -4 -4 -3 -0 -1 -0 -0 -1 1 3 4 6 7 6 5 5 5 4 4 5 3 4 3 0 -2 0 3 2 3 3 3 3 2 1 0 -1 2 -1 1 1 0 3 3 3
4 4 4 0 0 -0 -1 -1 -2 -2 -3 -4 -3 -1 1 1 1 -2 1 2 0 2 6 6 6 6 5 4 4 4 0 5 3 2 1 3 4 4 3 3 1 2 1 2 2 2 -2 0 -0 0 2 3 3 2
6 5 2 0 1 0 -1 -1 -2 -2 -3 -4 -4 -3 -1 1 1 -1 -2 -1 0 5 6 5 5 6 7 6 4 3 6 5 5 1 3 2 1 2 3 3 3 0 1 2 2 1 2 2 3 3 4 3 2 2
5 4 2 1 1 1 -0 -1 -2 -2 -3 -3 -3 -4 -3 -1 0 1 -1 -1 -2 -1 3 6 6 3 5 6 5 4 3 5 4 4 3 3 1 3 1 0 1 -1 2 2 2 4 4 4 3 3 3 3 1 -2
5 4 3 2 1 1 0 -0 -1 -2 -2 -3 -3 -3 -3 -2 -2 -2 -1 -0 -1 -1 5 6 6 5 3 4 6 6 5 5 6 5 2 2 2 3 2 2 2 3 2 2 3 1 2 2 3 3 2 -0 -4 -5
5 5 5 4 4 3 2 1 -0 -1 -2 -2 -2 -2 -2 -1 -2 -1 -1 1 1 2 1 2 6 5 4 6 4 5 5 5 5 4 4 4 6 3 2 3 3 3 3 3 2 3 4 3 3 3 -1 -4 -4 -6
5 4 4 4 4 4 4 2 1 -0 -0 -0 -1 -1 -1 -0 -0 -1 0 3 4 2 -1 4 4 4 5 7 7 7 7 7 6 5 5 4 4 5 2 3 1 -0 1 1 3 3 3 3 2 0 -3 -4 -7 -10
4 5 5 5 5 4 4 4 2 2 1 1 1 1 1 2 3 4 4 4 3 1 1 1 3 3 5 6 5 6 5 5 5 5 5 5 4 3 3 3 3 2 2 3 3 2 2 2 -0 -2 -3 -8 -10 -10
2 3 4 5 5 5 4 4 3 3 3 3 4 3 3 3 3 4 3 3 4 3 3 2 -0 1 5 4 4 4 4 2 3 3 4 3 2 4 3 3 3 3 3 2 2 1 -0 -2 -2 -3 -9 -10 -10 -9
0 2 2 3 4 5 4 4 4 4 5 5 3 3 3 3 4 4 3 2 3 4 3 2 2 2 3 3 3 2 3 1 3 1 3 2 3 2 2 2 2 2 2 2 0 -1 -5 -8 -8 -9 -9 -9 -9 -10
-2 -2 0 2 2 4 5 5 4 5 4 4 3 4 4 4 3 3 3 2 3 3 3 4 3 3 3 1 2 2 1 1 2 1 2 2 3 1 1 2 1 1 2 -0 -1 -3 -4 -3 -6 -9 -9 -10 -12 -16
-2 -2 -3 -2 -1 2 4 5 5 5 5 5 3 5 4 5 4 2 2 2 2 3 2 3 3 3 3 3 2 2 1 1 2 2 2 3 1 1 1 1 1 -0 -2 -4 -2 -4 -9 -9 -10 -15 -17 -18 -18 -17
-1 -0 1 2 2 1 2 3 4 4 4 4 4 4 3 2 3 4 4 2 2 1 1 2 1 2 2 2 1 1 3 3 1 2 2 1 1 0 1 1 -1 -5 -5 -4 -8 -9 -10 -13 -15 -17 -17 -16 -14 -13
-1 -1 0 1 1 2 2 3 3 3 3 2 1 1 1 1 0 -0 0 0 0 1 1 1 0 1 1 1 0 2 1 1 2 1 -2 1 1 0 -1 -2 -5 -7 -8 -8 -7 -8 -13 -14 -16 -16 -14 -12 -11 -11
-1 -1 -1 -1 0 0 1 2 2 2 1 0 -0 0 -1 -2 -2 -1 -1 -0 -0 0 0 0 0 0 -0 -0 -0 -0 0 1 1 1 0 0 1 -1 -4 -4 -5 -6 -6 -9 -13 -13 -14 -15 -14 -14 -13 -11 -10 -9
-2 -1 -1 -2 -2 -2 -2 -1 -1 -3 -2 -1 -1 -1 -1 -1 -1 -1 -1 -1 -0 -0 0 0 -0 1 -0 -0 -0 1 1 0 -1 -0 0 -0 -0 -2 -5 -5 -6 -9 -10 -11 -11 -11 -12 -13 -12 -11 -10 -10 -9 -7
-2 -1 -2 -2 -2 -2 -2 -2 -3 -6 -2 -2 -1 -1 -1 -1 -1 -1 -1 -1 -0 -1 -1 -0 -1 -1 -1 -0 0 -0 -1 -1 -1 -3 -1 -0 -2 -4 -4 -6 -9 -9 -11 -12 -13 -12 -12 -11 -9 -8 -8 -9 -8 -6
-2 -2 -2 -2 -2 -3 -4 -4 -5 -3 -1 -1 -1 -2 -1 -1 -2 -2 -2 -1 -1 -1 -1 -3 -2 -2 -1 -1 -0 -1 -2 -2 -1 -0 0 -2 -3 -5 -7 -8 -8 -10 -12 -12 -11 -10 -9 -7 -7 -8 -7 -6 -5 -6
-3 -3 -3 -3 -3 -3 -3 -3 -3 -3 -2 -2 -2 -2 -2 -2 -2 -2 -2 -3 -4 -5 -5 -3 -5 -4 -4 -3 -2 -2 -3 -2 -3 -4 -5 -7 -7 -6 -7 -8 -10 -11 -10 -9 -9 -8 -7 -7 -6 -7 -7 -6 -6 -6
-6 -4 -3 -3 -4 -3 -4 -3 -3 -3 -2 -3 -2 -3 -3 -3 -3 -2 -3 -3 -3 -4 -4 -5 -4 -3 -6 -5 -4 -4 -4 -5 -6 -6 -6 -7 -8 -9 -10 -8 -8 -8 -9 -10 -9 -9 -7 -7 -7 -6 -6 -6 -6 -6
-5 -4 -4 -4 -4 -3 -4 -3 -4 -4 -4 -3 -3 -3 -4 -4 -3 -3 -4 -4 -3 -3 -3 -4 -3 -4 -3 -4 -6 -7 -7 -6 -7 -7 -8 -10 -8 -6 -7 -7 -8 -10 -10 -8 -6 -6 -6 -5 -6 -6 -6 -5 -5 -5
-4 -3 -4 -3 -2 -3 -3 -3 -4 -4 -5 -4 -3 -4 -5 -5 -5 -4 -4 -3 -3 -4 -4 -5 -5 -5 -5 -5 -5 -6 -7 -8 -8 -7 -6 -6 -7 -7 -7 -7 -8 -11 -11 -8 -8 -8 -8 -10 -11 -12 -11 -8 -8 -6
-4 -3 -3 -3 -3 -4 -4 -4 -5 -5 -5 -3 -3 -4 -5 -5 -5 -4 -5 -5 -4 -5 -5 -5 -6 -7 -5 -5 -6 -8 -7 -6 -6 -6 -6 -6 -7 -9 -13 -15 -15 -14 -12 -10 -9 -9 -9 -10 -11 -11 -9 -7 -7 -7
-4 -3 -3 -3 -3 -4 -4 -4 -5 -5 -4 -4 -3 -5 -6 -5 -5 -5 -8 -4 -4 -4 -5 -6 -6 -5 -5 -5 -6 -6 -6 -6 -7 -9 -13 -16 -18 -17 -15 -12 -11 -10 -10 -11 -11 -12 -12 -12 -11 -10 -9 -8 -8 -8
-3 -4 -4 -5 -4 -4 -5 -7 -6 -6 -8 -8 -8 -9 -5 -6 -9 -9 -9 -5 -6 -5 -5 -5 -5 -5 -5 -6 -7 -8 -10 -13 -16 -18 -17 -16 -15 -14 -13 -13 -12 -12 -13 -14 -14 -14 -13 -13 -12 -12 -11 -10 -10 -9
-5 -4 -5 -5 -5 -5 -7 -8 -9 -9 -9 -9 -9 -5 -6 -8 -9 -9 -6 -7 -7 -7 -6 -6 -6 -7 -7 -9 -12 -13 -15 -16 -15 -16 -16 -15 -14 -13 -13 -13 -15 -16 -16 -16 -16 -15 -15 -14 -13 -13 -13 -12 -12 -11
-6 -7 -5 -5 -5 -4 -5 -5 -5 -6 -8 -9 -7 -7 -11 -9 -10 -7 -8 -8 -9 -8 -8 -9 -9 -10 -12 -13 -14 -15 -15 -15 -16 -17 -16 -14 -13 -13 -16 -18 -19 -19 -19 -19 -18 -17 -16 -15 -14 -14 -14 -14 -13 -12
-5 -6 -8 -5 -5 -4 -5 -5 -6 -7 -7 -6 -6 -8 -9 -10 -9 -9 -9 -9 -9 -9 -9 -9 -10 -12 -13 -14 -14 -14 -15 -18 -18 -20 -17 -13 -15 -22 -23 -24 -23 -23 -22 -22 -21 -19 -17 -16 -15 -15 -15 -14 -14 -13
-5 -5 -5 -5 -4 -4 -5 -6 -6 -4 -4 -5 -8 -8 -9 -10 -11 -11 -11 -10 -11 -11 -11 -11 -12 -13 -14 -14 -15 -17 -21 -23 -25 -26 -26 -25 -25 -24 -24 -23 -23 -23 -23 -22 -21 -19 -17 -16 -16 -16 -15 -14 -14 -14
-6 -5 -5 -5 -6 -6 -5 -5 -5 -5 -5 -5 -6 -9 -11 -12 -12 -12 -12 -12 -12 -12 -12 -13 -14 -15 -16 -19 -21 -21 -22 -23 -22 -22 -21 -22 -22 -22 -22 -22 -23 -22 -21 -20 -19 -19 -18 -18 -17 -17 -16 -16 -16 -16
-5 -5 -5 -5 -5 -6 -6 -6 -6 -6 -6 -6 -7 -8 -11 -13 -13 -13 -13 -13 -13 -14 -14 -15 -16 -21 -23 -24 -24 -22 -22 -21 -21 -21 -21 -22 -22 -22 -22 -22 -21 -20 -20 -19 -19 -19 -19 -19 -19 -18 -18 -18 -18 -18
-7 -7 -7 -7 -7 -7 -7 -7 -7 -7 -8 -8 -9 -10 -11 -12 -14 -14 -15 -14 -14 -15 -18 -22 -23 -23 -23 -23 -22 -22 -22 -21 -21 -21 -21 -21 -21 -22 -22 -21 -21 -20 -20 -20 -19 -19 -19 -19 -19 -19 -19 -19 -19 -19
-8 -8 -7 -7 -7 -7 -9 -8 -7 -7 -7 -8 -9 -10 -11 -11 -14 -14 -15 -15 -16 -20 -21 -22 -22 -22 -22 -22 -22 -21 -21 -21 -21 -21 -21 -21 -21 -21 -21 -21 -20 -20 -20 -20 -20 -20 -20 -20 -20 -20 -20 -20 -20 -20